| time (UTC) | temp F | wind direction | speed MPH | gust MPH | rain 1hr in | rain 24hr in | rain mn in | humidity % | barometer mb |
| 20260904044504 | 67 | 270 | 6.0 | 9.0 | 0.00 | 0.00 | 0.00 | 90 | 1055.5 |
| 20260904044403 | 67 | 268 | 6.0 | 9.0 | 0.00 | 0.00 | 0.00 | 90 | 1055.4 |
| 20260904044345 | 67 | 276 | 6.0 | 9.0 | 0.00 | 0.00 | 0.00 | 90 | 1055.4 |
| 20260904044338 | 67 | 277 | 6.0 | 9.0 | 0.00 | 0.00 | 0.00 | 90 | 1055.5 |
| 20260904044330 | 67 | 299 | 6.0 | 9.0 | 0.00 | 0.00 | 0.00 | 90 | 1055.5 |
| 20260904044003 | 67 | 281 | 6.0 | 9.0 | 0.00 | 0.00 | 0.00 | 90 | 1055.5 |
| 20260904043904 | 67 | 269 | 5.0 | 9.0 | 0.00 | 0.00 | 0.00 | 90 | 1055.4 |
| 20260904043842 | 67 | 266 | 5.0 | 9.0 | 0.00 | 0.00 | 0.00 | 90 | 1055.4 |
| 20260904043803 | 67 | 288 | 5.0 | 9.0 | 0.00 | 0.00 | 0.00 | 90 | 1055.5 |
| 20260904043703 | 67 | 292 | 5.0 | 9.0 | 0.00 | 0.00 | 0.00 | 90 | 1055.4 |
| 20260904043604 | 67 | 288 | 5.0 | 9.0 | 0.00 | 0.00 | 0.00 | 90 | 1055.5 |
| 20260904043503 | 67 | 281 | 5.0 | 8.0 | 0.00 | 0.00 | 0.00 | 90 | 1055.4 |
| 20260904043403 | 67 | 282 | 5.0 | 8.0 | 0.00 | 0.00 | 0.00 | 90 | 1055.5 |
| 20260904043342 | 67 | 280 | 5.0 | 8.0 | 0.00 | 0.00 | 0.00 | 90 | 1055.5 |
| 20260904043303 | 67 | 283 | 5.0 | 8.0 | 0.00 | 0.00 | 0.00 | 90 | 1055.5 |
| 20260904043203 | 67 | 283 | 5.0 | 8.0 | 0.00 | 0.00 | 0.00 | 90 | 1055.5 |
| 20260904043126 | 67 | 281 | 5.0 | 7.0 | 0.00 | 0.00 | 0.00 | 90 | 1055.5 |
| 20260904043117 | 67 | 280 | 5.0 | 7.0 | 0.00 | 0.00 | 0.00 | 90 | 1055.5 |
| 20260904043101 | 67 | 281 | 5.0 | 8.0 | 0.00 | 0.00 | 0.00 | 90 | 1055.5 |
| 20260904042804 | 67 | 280 | 5.0 | 8.0 | 0.00 | 0.00 | 0.00 | 90 | 1055.5 |
| 20260904042724 | 67 | 280 | 5.0 | 8.0 | 0.00 | 0.00 | 0.00 | 90 | 1055.5 |
| 20260904042715 | 67 | 282 | 5.0 | 8.0 | 0.00 | 0.00 | 0.00 | 90 | 1055.5 |
| 20260904042701 | 67 | 281 | 5.0 | 8.0 | 0.00 | 0.00 | 0.00 | 90 | 1055.5 |
| 20260904042650 | 67 | 281 | 5.0 | 8.0 | 0.00 | 0.00 | 0.00 | 90 | 1055.5 |
| 20260904042426 | 67 | 280 | 5.0 | 8.0 | 0.00 | 0.00 | 0.00 | 90 | 1055.5 |
| 20260904042132 | 67 | 279 | 5.0 | 8.0 | 0.00 | 0.00 | 0.00 | 90 | 1055.5 |
| 20260904042123 | 67 | 278 | 5.0 | 8.0 | 0.00 | 0.00 | 0.00 | 90 | 1055.6 |
| 20260904042111 | 67 | 278 | 5.0 | 8.0 | 0.00 | 0.00 | 0.00 | 90 | 1055.6 |
| 20260904042100 | 67 | 278 | 5.0 | 8.0 | 0.00 | 0.00 | 0.00 | 90 | 1055.6 |
| 20260904042051 | 67 | 277 | 5.0 | 8.0 | 0.00 | 0.00 | 0.00 | 90 | 1055.6 |
| 20260904041503 | 67 | 277 | 5.0 | 8.0 | 0.00 | 0.00 | 0.00 | 90 | 1055.6 |
| 20260904041405 | 67 | 278 | 5.0 | 8.0 | 0.00 | 0.00 | 0.00 | 90 | 1055.6 |
| 20260904041342 | 67 | 276 | 5.0 | 8.0 | 0.00 | 0.00 | 0.00 | 90 | 1055.6 |
| 20260904041303 | 67 | 275 | 4.0 | 8.0 | 0.00 | 0.00 | 0.00 | 90 | 1055.6 |
| 20260904041204 | 67 | 276 | 4.0 | 7.0 | 0.00 | 0.00 | 0.00 | 90 | 1055.6 |
| 20260904041105 | 67 | 277 | 3.0 | 7.0 | 0.00 | 0.00 | 0.00 | 90 | 1055.6 |
| 20260904041003 | 67 | 278 | 3.0 | 6.0 | 0.00 | 0.00 | 0.00 | 90 | 1055.6 |
| 20260904040903 | 67 | 278 | 3.0 | 6.0 | 0.00 | 0.00 | 0.00 | 90 | 1055.6 |
| 20260904040842 | 67 | 278 | 3.0 | 6.0 | 0.00 | 0.00 | 0.00 | 90 | 1055.6 |
| 20260904040803 | 67 | 277 | 2.0 | 6.0 | 0.00 | 0.00 | 0.00 | 90 | 1055.6 |
| 20260904040703 | 67 | 277 | 2.0 | 6.0 | 0.00 | 0.00 | 0.00 | 90 | 1055.7 |
| 20260904040604 | 67 | 277 | 2.0 | 4.0 | 0.00 | 0.00 | 0.00 | 90 | 1055.7 |
| 20260904040503 | 67 | 278 | 1.0 | 4.0 | 0.00 | 0.00 | 0.00 | 90 | 1055.7 |
| 20260904040403 | 67 | 278 | 1.0 | 4.0 | 0.00 | 0.00 | 0.00 | 90 | 1055.7 |
| 20260904040341 | 67 | 277 | 1.0 | 4.0 | 0.00 | 0.00 | 0.00 | 90 | 1055.7 |
| 20260904040303 | 67 | 277 | 1.0 | 3.0 | 0.00 | 0.00 | 0.00 | 90 | 1055.7 |
| 20260904040203 | 67 | 277 | 1.0 | 3.0 | 0.00 | 0.00 | 0.00 | 90 | 1055.7 |
| 20260904040122 | 67 | 276 | 1.0 | 3.0 | 0.00 | 0.00 | 0.00 | 90 | 1055.7 |
| 20260904040110 | 67 | 277 | 1.0 | 3.0 | 0.00 | 0.00 | 0.00 | 90 | 1055.7 |
| 20260904040057 | 67 | 277 | 1.0 | 3.0 | 0.00 | 0.00 | 0.00 | 90 | 1055.7 |
| 20260904040046 | 67 | 277 | 1.0 | 3.0 | 0.00 | 0.00 | 0.00 | 90 | 1055.7 |
| 20260904035825 | 67 | 277 | 1.0 | 3.0 | 0.00 | 0.00 | 0.00 | 90 | 1055.7 |
| 20260904035811 | 67 | 277 | 1.0 | 3.0 | 0.00 | 0.00 | 0.00 | 90 | 1055.7 |
| 20260904035546 | 67 | 277 | 2.0 | 3.0 | 0.00 | 0.00 | 0.00 | 90 | 1055.7 |
| 20260904035529 | 67 | 277 | 2.0 | 3.0 | 0.00 | 0.00 | 0.00 | 90 | 1055.7 |
| 20260904035520 | 67 | 277 | 2.0 | 3.0 | 0.00 | 0.00 | 0.00 | 90 | 1055.7 |
| 20260904035034 | 67 | 277 | 2.0 | 3.0 | 0.00 | 0.00 | 0.00 | 90 | 1055.7 |
| 20260904035025 | 67 | 277 | 2.0 | 3.0 | 0.00 | 0.00 | 0.00 | 90 | 1055.7 |
| 20260904035009 | 67 | 277 | 2.0 | 3.0 | 0.00 | 0.00 | 0.00 | 90 | 1055.8 |
| 20260904035002 | 67 | 277 | 1.0 | 3.0 | 0.00 | 0.00 | 0.00 | 90 | 1055.8 |
| 20260904034953 | 67 | 277 | 1.0 | 3.0 | 0.00 | 0.00 | 0.00 | 90 | 1055.8 |
| 20260904034944 | 67 | 277 | 1.0 | 3.0 | 0.00 | 0.00 | 0.00 | 90 | 1055.8 |
| 20260904034715 | 67 | 277 | 1.0 | 3.0 | 0.00 | 0.00 | 0.00 | 90 | 1055.8 |
| 20260904034226 | 68 | 277 | 0.0 | 3.0 | 0.00 | 0.00 | 0.00 | 90 | 1055.8 |
| 20260904033901 | 68 | 277 | 1.0 | 4.0 | 0.00 | 0.00 | 0.00 | 90 | 1055.8 |
| 20260904033837 | 68 | 278 | 1.0 | 4.0 | 0.00 | 0.00 | 0.00 | 90 | 1055.8 |
| 20260904033801 | 68 | 277 | 1.0 | 4.0 | 0.00 | 0.00 | 0.00 | 90 | 1055.8 |
| 20260904033659 | 68 | 277 | 1.0 | 4.0 | 0.00 | 0.00 | 0.00 | 90 | 1056.0 |
| 20260904033559 | 68 | 278 | 1.0 | 4.0 | 0.00 | 0.00 | 0.00 | 90 | 1056.0 |
| 20260904033500 | 68 | 277 | 2.0 | 4.0 | 0.00 | 0.00 | 0.00 | 90 | 1056.0 |
| 20260904033336 | 68 | 277 | 2.0 | 4.0 | 0.00 | 0.00 | 0.00 | 90 | 1056.0 |
| 20260904033252 | 68 | 277 | 2.0 | 4.0 | 0.00 | 0.00 | 0.00 | 90 | 1056.0 |
| 20260904033228 | 68 | 277 | 2.0 | 4.0 | 0.00 | 0.00 | 0.00 | 90 | 1056.0 |
| 20260904033218 | 68 | 277 | 3.0 | 6.0 | 0.00 | 0.00 | 0.00 | 90 | 1056.0 |
| 20260904032832 | 68 | 278 | 3.0 | 6.0 | 0.00 | 0.00 | 0.00 | 90 | 1056.0 |
| 20260904032751 | 68 | 277 | 3.0 | 6.0 | 0.00 | 0.00 | 0.00 | 90 | 1055.8 |
| 20260904032653 | 68 | 277 | 3.0 | 6.0 | 0.00 | 0.00 | 0.00 | 90 | 1056.0 |
| 20260904032548 | 68 | 277 | 3.0 | 6.0 | 0.00 | 0.00 | 0.00 | 90 | 1056.0 |
| 20260904032447 | 68 | 277 | 3.0 | 6.0 | 0.00 | 0.00 | 0.00 | 90 | 1056.0 |
| 20260904032332 | 68 | 277 | 3.0 | 6.0 | 0.00 | 0.00 | 0.00 | 90 | 1056.1 |
| 20260904032247 | 68 | 277 | 3.0 | 6.0 | 0.00 | 0.00 | 0.00 | 90 | 1056.0 |
| 20260904032147 | 68 | 277 | 3.0 | 6.0 | 0.00 | 0.00 | 0.00 | 90 | 1056.0 |
| 20260904032047 | 68 | 277 | 3.0 | 6.0 | 0.00 | 0.00 | 0.00 | 90 | 1056.1 |
| 20260904031945 | 68 | 278 | 3.0 | 6.0 | 0.00 | 0.00 | 0.00 | 90 | 1056.1 |
| 20260904031833 | 68 | 277 | 3.0 | 6.0 | 0.00 | 0.00 | 0.00 | 90 | 1056.1 |
| 20260904031743 | 68 | 277 | 3.0 | 6.0 | 0.00 | 0.00 | 0.00 | 90 | 1056.1 |
| 20260904031705 | 68 | 277 | 3.0 | 6.0 | 0.00 | 0.00 | 0.00 | 90 | 1056.1 |
| 20260904031648 | 68 | 277 | 3.0 | 6.0 | 0.00 | 0.00 | 0.00 | 90 | 1056.1 |
| 20260904031636 | 68 | 277 | 3.0 | 6.0 | 0.00 | 0.00 | 0.00 | 90 | 1056.1 |
| 20260904031624 | 67 | 277 | 3.0 | 6.0 | 0.00 | 0.00 | 0.00 | 90 | 1056.1 |
| 20260904031357 | 67 | 277 | 3.0 | 6.0 | 0.00 | 0.00 | 0.00 | 90 | 1056.2 |
| 20260904031032 | 68 | 276 | 3.0 | 6.0 | 0.00 | 0.00 | 0.00 | 90 | 1056.2 |
| 20260904030930 | 68 | 276 | 3.0 | 6.0 | 0.00 | 0.00 | 0.00 | 90 | 1056.2 |
| 20260904030830 | 68 | 276 | 3.0 | 6.0 | 0.00 | 0.00 | 0.00 | 90 | 1056.2 |
| 20260904030729 | 68 | 276 | 3.0 | 6.0 | 0.00 | 0.00 | 0.00 | 90 | 1056.2 |
| 20260904030627 | 68 | 276 | 3.0 | 6.0 | 0.00 | 0.00 | 0.00 | 90 | 1056.2 |
| 20260904030606 | 68 | 276 | 4.0 | 6.0 | 0.00 | 0.00 | 0.00 | 90 | 1056.2 |
| 20260904030558 | 68 | 277 | 4.0 | 6.0 | 0.00 | 0.00 | 0.00 | 90 | 1056.2 |
| 20260904030328 | 68 | 276 | 4.0 | 6.0 | 0.00 | 0.00 | 0.00 | 90 | 1056.2 |
| 20260904030222 | 68 | 276 | 4.0 | 6.0 | 0.00 | 0.00 | 0.00 | 90 | 1056.2 |
| 20260904030154 | 68 | 276 | 4.0 | 6.0 | 0.00 | 0.00 | 0.00 | 90 | 1056.2 |
| 20260904030145 | 68 | 276 | 4.0 | 6.0 | 0.00 | 0.00 | 0.00 | 90 | 1056.2 |
| 20260904025821 | 68 | 274 | 4.0 | 6.0 | 0.00 | 0.00 | 0.00 | 90 | 1056.3 |
| 20260904025715 | 68 | 273 | 4.0 | 6.0 | 0.00 | 0.00 | 0.00 | 90 | 1056.3 |
| 20260904025614 | 68 | 257 | 3.0 | 6.0 | 0.00 | 0.00 | 0.00 | 90 | 1056.3 |
| 20260904025514 | 68 | 257 | 3.0 | 6.0 | 0.00 | 0.00 | 0.00 | 90 | 1056.2 |
| 20260904025413 | 68 | 256 | 3.0 | 6.0 | 0.00 | 0.00 | 0.00 | 90 | 1056.3 |
| 20260904025311 | 68 | 256 | 3.0 | 6.0 | 0.00 | 0.00 | 0.00 | 90 | 1056.4 |
| 20260904025204 | 68 | 256 | 3.0 | 6.0 | 0.00 | 0.00 | 0.00 | 90 | 1056.3 |
| 20260904025106 | 68 | 256 | 3.0 | 6.0 | 0.00 | 0.00 | 0.00 | 90 | 1056.4 |
| 20260904025004 | 68 | 256 | 2.0 | 6.0 | 0.00 | 0.00 | 0.00 | 90 | 1056.4 |
| 20260904024902 | 68 | 277 | 2.0 | 4.0 | 0.00 | 0.00 | 0.00 | 90 | 1056.4 |
| 20260904024829 | 68 | 278 | 2.0 | 4.0 | 0.00 | 0.00 | 0.00 | 90 | 1056.4 |
| 20260904024821 | 68 | 278 | 2.0 | 6.0 | 0.00 | 0.00 | 0.00 | 90 | 1056.4 |
| 20260904024808 | 68 | 278 | 2.0 | 6.0 | 0.00 | 0.00 | 0.00 | 90 | 1056.4 |
| 20260904024540 | 68 | 278 | 2.0 | 6.0 | 0.00 | 0.00 | 0.00 | 90 | 1056.4 |
| 20260904024519 | 68 | 278 | 2.0 | 6.0 | 0.00 | 0.00 | 0.00 | 90 | 1056.4 |
| 20260904024202 | 68 | 278 | 2.0 | 6.0 | 0.00 | 0.00 | 0.00 | 90 | 1056.4 |
| 20260904024103 | 68 | 278 | 2.0 | 6.0 | 0.00 | 0.00 | 0.00 | 90 | 1056.4 |
| 20260904024046 | 68 | 278 | 2.0 | 6.0 | 0.00 | 0.00 | 0.00 | 90 | 1056.4 |
| 20260904024033 | 68 | 279 | 2.0 | 6.0 | 0.00 | 0.00 | 0.00 | 90 | 1056.4 |
| 20260904023802 | 68 | 279 | 2.0 | 6.0 | 0.00 | 0.00 | 0.00 | 90 | 1056.4 |
| 20260904023701 | 68 | 279 | 2.0 | 4.0 | 0.00 | 0.00 | 0.00 | 90 | 1056.4 |
| 20260904023603 | 68 | 278 | 2.0 | 4.0 | 0.00 | 0.00 | 0.00 | 90 | 1056.5 |
| 20260904023500 | 68 | 278 | 2.0 | 4.0 | 0.00 | 0.00 | 0.00 | 90 | 1056.4 |
| 20260904023401 | 68 | 279 | 2.0 | 4.0 | 0.00 | 0.00 | 0.00 | 90 | 1056.4 |
| 20260904023339 | 68 | 278 | 2.0 | 4.0 | 0.00 | 0.00 | 0.00 | 90 | 1056.4 |
| 20260904023329 | 68 | 278 | 2.0 | 4.0 | 0.00 | 0.00 | 0.00 | 90 | 1056.4 |
| 20260904023319 | 68 | 280 | 2.0 | 4.0 | 0.00 | 0.00 | 0.00 | 90 | 1056.4 |
| 20260904023307 | 68 | 279 | 2.0 | 4.0 | 0.00 | 0.00 | 0.00 | 90 | 1056.4 |
| 20260904023258 | 68 | 278 | 2.0 | 4.0 | 0.00 | 0.00 | 0.00 | 90 | 1056.4 |
| 20260904022754 | 68 | 278 | 2.0 | 4.0 | 0.00 | 0.00 | 0.00 | 90 | 1056.4 |
| 20260904022652 | 68 | 279 | 2.0 | 4.0 | 0.00 | 0.00 | 0.00 | 90 | 1056.4 |
| 20260904022550 | 68 | 278 | 2.0 | 4.0 | 0.00 | 0.00 | 0.00 | 90 | 1056.5 |
| 20260904022450 | 68 | 279 | 3.0 | 6.0 | 0.00 | 0.00 | 0.00 | 90 | 1056.5 |
| 20260904022320 | 68 | 279 | 3.0 | 6.0 | 0.00 | 0.00 | 0.00 | 90 | 1056.5 |
| 20260904022310 | 68 | 278 | 3.0 | 6.0 | 0.00 | 0.00 | 0.00 | 90 | 1056.5 |
| 20260904022300 | 68 | 281 | 3.0 | 6.0 | 0.00 | 0.00 | 0.00 | 90 | 1056.5 |
| 20260904022242 | 68 | 278 | 3.0 | 6.0 | 0.00 | 0.00 | 0.00 | 90 | 1056.5 |
| 20260904022005 | 68 | 279 | 3.0 | 6.0 | 0.00 | 0.00 | 0.00 | 91 | 1056.5 |
| 20260904021638 | 68 | 278 | 3.0 | 6.0 | 0.00 | 0.00 | 0.00 | 91 | 1056.5 |
| 20260904021537 | 68 | 278 | 3.0 | 6.0 | 0.00 | 0.00 | 0.00 | 91 | 1056.5 |
| 20260904021518 | 68 | 278 | 3.0 | 6.0 | 0.00 | 0.00 | 0.00 | 91 | 1056.5 |
| 20260904021510 | 68 | 278 | 3.0 | 6.0 | 0.00 | 0.00 | 0.00 | 90 | 1056.5 |
| 20260904021503 | 67 | 276 | 3.0 | 6.0 | 0.00 | 0.00 | 0.00 | 90 | 1056.5 |
| 20260904021134 | 67 | 277 | 2.0 | 6.0 | 0.00 | 0.00 | 0.00 | 90 | 1056.5 |
| 20260904021034 | 67 | 276 | 2.0 | 4.0 | 0.00 | 0.00 | 0.00 | 90 | 1056.5 |
| 20260904020933 | 67 | 276 | 2.0 | 4.0 | 0.00 | 0.00 | 0.00 | 90 | 1056.5 |
| 20260904020805 | 67 | 276 | 2.0 | 4.0 | 0.00 | 0.00 | 0.00 | 90 | 1056.5 |
| 20260904020746 | 67 | 276 | 2.0 | 4.0 | 0.00 | 0.00 | 0.00 | 90 | 1056.5 |
| 20260904020739 | 67 | 277 | 2.0 | 4.0 | 0.00 | 0.00 | 0.00 | 90 | 1056.5 |
| 20260904020724 | 67 | 276 | 2.0 | 4.0 | 0.00 | 0.00 | 0.00 | 90 | 1056.5 |
| 20260904020450 | 67 | 294 | 2.0 | 3.0 | 0.00 | 0.00 | 0.00 | 90 | 1056.5 |
| 20260904020127 | 67 | 294 | 2.0 | 4.0 | 0.00 | 0.00 | 0.00 | 90 | 1056.5 |
| 20260904020027 | 67 | 294 | 2.0 | 4.0 | 0.00 | 0.00 | 0.00 | 90 | 1056.5 |
| 20260904015926 | 67 | 294 | 2.0 | 4.0 | 0.00 | 0.00 | 0.00 | 90 | 1056.6 |
| 20260904015826 | 68 | 294 | 2.0 | 5.0 | 0.00 | 0.00 | 0.00 | 89 | 1056.6 |
| 20260904015803 | 68 | 294 | 3.0 | 5.0 | 0.00 | 0.00 | 0.00 | 89 | 1056.6 |
| 20260904015727 | 68 | 294 | 3.0 | 5.0 | 0.00 | 0.00 | 0.00 | 89 | 1056.6 |
| 20260904015624 | 68 | 294 | 3.0 | 5.0 | 0.00 | 0.00 | 0.00 | 89 | 1056.6 |
| 20260904015525 | 68 | 294 | 3.0 | 5.0 | 0.00 | 0.00 | 0.00 | 89 | 1056.7 |
| 20260904015424 | 68 | 294 | 3.0 | 5.0 | 0.00 | 0.00 | 0.00 | 89 | 1056.7 |
| 20260904015359 | 68 | 294 | 3.0 | 5.0 | 0.00 | 0.00 | 0.00 | 89 | 1056.6 |
| 20260904015353 | 68 | 294 | 3.0 | 5.0 | 0.00 | 0.00 | 0.00 | 89 | 1056.8 |
| 20260904015345 | 68 | 294 | 3.0 | 5.0 | 0.00 | 0.00 | 0.00 | 89 | 1056.8 |
| 20260904015018 | 68 | 294 | 3.0 | 5.0 | 0.00 | 0.00 | 0.00 | 89 | 1056.7 |
| 20260904014919 | 68 | 294 | 3.0 | 5.0 | 0.00 | 0.00 | 0.00 | 89 | 1056.7 |
| 20260904014829 | 68 | 295 | 3.0 | 5.0 | 0.00 | 0.00 | 0.00 | 89 | 1056.7 |
| 20260904014817 | 68 | 294 | 3.0 | 5.0 | 0.00 | 0.00 | 0.00 | 89 | 1056.7 |
| 20260904014807 | 68 | 295 | 3.0 | 5.0 | 0.00 | 0.00 | 0.00 | 89 | 1056.8 |
| 20260904014757 | 68 | 294 | 3.0 | 5.0 | 0.00 | 0.00 | 0.00 | 89 | 1056.8 |
| 20260904014747 | 68 | 295 | 3.0 | 5.0 | 0.00 | 0.00 | 0.00 | 89 | 1056.8 |
| 20260904014519 | 68 | 295 | 3.0 | 5.0 | 0.00 | 0.00 | 0.00 | 90 | 1056.8 |
| 20260904014509 | 68 | 294 | 3.0 | 5.0 | 0.00 | 0.00 | 0.00 | 90 | 1056.8 |
| 20260904014239 | 68 | 295 | 3.0 | 5.0 | 0.00 | 0.00 | 0.00 | 90 | 1056.8 |
| 20260904014229 | 68 | 295 | 3.0 | 5.0 | 0.00 | 0.00 | 0.00 | 90 | 1056.8 |
| 20260904014219 | 68 | 294 | 3.0 | 4.0 | 0.00 | 0.00 | 0.00 | 90 | 1056.8 |
| 20260904013952 | 68 | 295 | 3.0 | 4.0 | 0.00 | 0.00 | 0.00 | 90 | 1056.8 |
| 20260904013725 | 68 | 294 | 3.0 | 7.0 | 0.00 | 0.00 | 0.00 | 89 | 1056.8 |
| 20260904013716 | 68 | 295 | 3.0 | 7.0 | 0.00 | 0.00 | 0.00 | 89 | 1056.8 |
| 20260904013701 | 68 | 295 | 3.0 | 7.0 | 0.00 | 0.00 | 0.00 | 89 | 1056.8 |
| 20260904013656 | 68 | 294 | 4.0 | 7.0 | 0.00 | 0.00 | 0.00 | 89 | 1056.8 |
| 20260904013643 | 68 | 294 | 4.0 | 7.0 | 0.00 | 0.00 | 0.00 | 89 | 1056.8 |
| 20260904013411 | 69 | 295 | 3.0 | 7.0 | 0.00 | 0.00 | 0.00 | 89 | 1056.8 |
| 20260904013140 | 69 | 295 | 3.0 | 7.0 | 0.00 | 0.00 | 0.00 | 89 | 1056.8 |
| 20260904013125 | 69 | 295 | 3.0 | 7.0 | 0.00 | 0.00 | 0.00 | 89 | 1056.8 |
| 20260904012633 | 69 | 278 | 3.0 | 6.0 | 0.00 | 0.00 | 0.00 | 89 | 1056.8 |
| 20260904012411 | 69 | 277 | 3.0 | 6.0 | 0.00 | 0.00 | 0.00 | 89 | 1056.8 |
| 20260904012401 | 69 | 278 | 4.0 | 6.0 | 0.00 | 0.00 | 0.00 | 89 | 1056.8 |
| 20260904012352 | 69 | 277 | 4.0 | 6.0 | 0.00 | 0.00 | 0.00 | 89 | 1056.9 |
| 20260904012341 | 69 | 277 | 4.0 | 6.0 | 0.00 | 0.00 | 0.00 | 90 | 1056.9 |
| 20260904012330 | 69 | 278 | 4.0 | 6.0 | 0.00 | 0.00 | 0.00 | 90 | 1056.9 |
| 20260904012316 | 69 | 278 | 4.0 | 6.0 | 0.00 | 0.00 | 0.00 | 90 | 1056.9 |
| 20260904012306 | 69 | 278 | 4.0 | 6.0 | 0.00 | 0.00 | 0.00 | 89 | 1056.9 |
| 20260904012035 | 69 | 277 | 3.0 | 6.0 | 0.00 | 0.00 | 0.00 | 89 | 1056.9 |
| 20260904012028 | 69 | 276 | 3.0 | 6.0 | 0.00 | 0.00 | 0.00 | 89 | 1056.9 |
| 20260904011755 | 69 | 276 | 2.0 | 6.0 | 0.00 | 0.00 | 0.00 | 89 | 1056.9 |
| 20260904011523 | 69 | 274 | 2.0 | 4.0 | 0.00 | 0.00 | 0.00 | 89 | 1057.0 |
| 20260904010816 | 69 | 274 | 2.0 | 4.0 | 0.00 | 0.00 | 0.00 | 89 | 1057.0 |
| 20260904010807 | 69 | 274 | 2.0 | 4.0 | 0.00 | 0.00 | 0.00 | 89 | 1057.0 |
| 20260904010751 | 69 | 274 | 2.0 | 3.0 | 0.00 | 0.00 | 0.00 | 89 | 1057.0 |
| 20260904010508 | 69 | 274 | 2.0 | 3.0 | 0.00 | 0.00 | 0.00 | 89 | 1057.1 |
| 20260904010148 | 69 | 274 | 2.0 | 3.0 | 0.00 | 0.00 | 0.00 | 89 | 1057.1 |
| 20260904010049 | 69 | 274 | 2.0 | 3.0 | 0.00 | 0.00 | 0.00 | 89 | 1057.1 |
| 20260904005948 | 69 | 274 | 2.0 | 3.0 | 0.00 | 0.00 | 0.00 | 89 | 1057.1 |
| 20260904005917 | 69 | 274 | 2.0 | 3.0 | 0.00 | 0.00 | 0.00 | 89 | 1057.1 |
| 20260904005908 | 69 | 274 | 2.0 | 3.0 | 0.00 | 0.00 | 0.00 | 89 | 1057.1 |
| 20260904005546 | 69 | 274 | 2.0 | 3.0 | 0.00 | 0.00 | 0.00 | 89 | 1057.2 |
| 20260904005444 | 69 | 274 | 2.0 | 3.0 | 0.00 | 0.00 | 0.00 | 89 | 1057.2 |
| 20260904005314 | 69 | 274 | 2.0 | 3.0 | 0.00 | 0.00 | 0.00 | 89 | 1057.2 |
| 20260904005308 | 69 | 274 | 2.0 | 3.0 | 0.00 | 0.00 | 0.00 | 89 | 1057.2 |
| 20260904005300 | 69 | 274 | 2.0 | 3.0 | 0.00 | 0.00 | 0.00 | 89 | 1057.2 |
| 20260904005245 | 69 | 274 | 2.0 | 3.0 | 0.00 | 0.00 | 0.00 | 89 | 1057.2 |
| 20260904005236 | 69 | 274 | 2.0 | 3.0 | 0.00 | 0.00 | 0.00 | 89 | 1057.2 |
| 20260904005226 | 69 | 274 | 2.0 | 3.0 | 0.00 | 0.00 | 0.00 | 89 | 1057.2 |
| 20260904004949 | 69 | 274 | 2.0 | 4.0 | 0.00 | 0.00 | 0.00 | 89 | 1057.1 |
| 20260904004941 | 69 | 274 | 2.0 | 4.0 | 0.00 | 0.00 | 0.00 | 89 | 1057.2 |
| 20260904004932 | 69 | 274 | 2.0 | 4.0 | 0.00 | 0.00 | 0.00 | 89 | 1057.2 |
| 20260904004924 | 69 | 274 | 2.0 | 4.0 | 0.00 | 0.00 | 0.00 | 89 | 1057.2 |
| 20260904004916 | 69 | 274 | 2.0 | 4.0 | 0.00 | 0.00 | 0.00 | 89 | 1057.1 |
| 20260904004909 | 69 | 275 | 2.0 | 4.0 | 0.00 | 0.00 | 0.00 | 89 | 1057.2 |
| 20260904004641 | 69 | 274 | 2.0 | 4.0 | 0.00 | 0.00 | 0.00 | 89 | 1057.2 |
| 20260904004627 | 69 | 274 | 2.0 | 4.0 | 0.00 | 0.00 | 0.00 | 89 | 1057.2 |
| 20260904004619 | 69 | 275 | 2.0 | 4.0 | 0.00 | 0.00 | 0.00 | 89 | 1057.2 |
| 20260904004134 | 69 | 274 | 2.0 | 4.0 | 0.00 | 0.00 | 0.00 | 89 | 1057.2 |
| 20260904004123 | 69 | 275 | 2.0 | 4.0 | 0.00 | 0.00 | 0.00 | 89 | 1057.2 |
| 20260904004109 | 69 | 274 | 2.0 | 4.0 | 0.00 | 0.00 | 0.00 | 89 | 1057.2 |
| 20260904004101 | 69 | 274 | 2.0 | 4.0 | 0.00 | 0.00 | 0.00 | 89 | 1057.2 |
| 20260904004044 | 69 | 274 | 2.0 | 4.0 | 0.00 | 0.00 | 0.00 | 89 | 1057.2 |
| 20260904003814 | 69 | 274 | 2.0 | 3.0 | 0.00 | 0.00 | 0.00 | 89 | 1057.2 |
| 20260904003546 | 69 | 274 | 2.0 | 3.0 | 0.00 | 0.00 | 0.00 | 89 | 1057.2 |
| 20260904003530 | 69 | 274 | 2.0 | 3.0 | 0.00 | 0.00 | 0.00 | 89 | 1057.2 |
| 20260904002829 | 69 | 274 | 2.0 | 4.0 | 0.00 | 0.00 | 0.00 | 89 | 1057.2 |
| 20260904002821 | 69 | 274 | 2.0 | 4.0 | 0.00 | 0.00 | 0.00 | 89 | 1057.2 |
| 20260904002804 | 69 | 273 | 2.0 | 6.0 | 0.00 | 0.00 | 0.00 | 89 | 1057.3 |
| 20260904002322 | 69 | 274 | 2.0 | 6.0 | 0.00 | 0.00 | 0.00 | 89 | 1057.3 |
| 20260904002307 | 69 | 274 | 3.0 | 6.0 | 0.00 | 0.00 | 0.00 | 89 | 1057.3 |
| 20260904002258 | 69 | 273 | 3.0 | 6.0 | 0.00 | 0.00 | 0.00 | 89 | 1057.3 |
| 20260904002033 | 69 | 274 | 3.0 | 6.0 | 0.00 | 0.00 | 0.00 | 89 | 1057.4 |
| 20260904002024 | 69 | 274 | 3.0 | 6.0 | 0.00 | 0.00 | 0.00 | 89 | 1057.4 |
| 20260904001747 | 69 | 273 | 3.0 | 6.0 | 0.00 | 0.00 | 0.00 | 89 | 1057.4 |
| 20260904001519 | 69 | 273 | 3.0 | 6.0 | 0.00 | 0.00 | 0.00 | 89 | 1057.3 |
| 20260904001214 | 69 | 273 | 3.0 | 6.0 | 0.00 | 0.00 | 0.00 | 89 | 1057.3 |
| 20260904001114 | 69 | 273 | 3.0 | 6.0 | 0.00 | 0.00 | 0.00 | 89 | 1057.3 |
| 20260904001014 | 69 | 273 | 3.0 | 6.0 | 0.00 | 0.00 | 0.00 | 89 | 1057.3 |
| 20260904000914 | 69 | 273 | 3.0 | 6.0 | 0.00 | 0.00 | 0.00 | 89 | 1057.3 |
| 20260904000802 | 69 | 272 | 3.0 | 6.0 | 0.00 | 0.00 | 0.00 | 89 | 1057.3 |
| 20260904000708 | 69 | 272 | 3.0 | 6.0 | 0.00 | 0.00 | 0.00 | 89 | 1057.3 |
| 20260904000618 | 69 | 273 | 3.0 | 6.0 | 0.00 | 0.00 | 0.00 | 89 | 1057.3 |
| 20260904000609 | 69 | 273 | 3.0 | 6.0 | 0.00 | 0.00 | 0.00 | 89 | 1057.3 |
| 20260904000600 | 69 | 272 | 3.0 | 6.0 | 0.00 | 0.00 | 0.00 | 89 | 1057.3 |
| 20260904000539 | 69 | 273 | 3.0 | 6.0 | 0.00 | 0.00 | 0.00 | 89 | 1057.3 |
| 20260904000530 | 69 | 272 | 3.0 | 6.0 | 0.00 | 0.00 | 0.00 | 89 | 1057.3 |
| 20260904000303 | 69 | 243 | 3.0 | 4.0 | 0.00 | 0.00 | 0.00 | 89 | 1057.4 |
| 20260903235808 | 69 | 242 | 2.0 | 4.0 | 0.00 | 0.00 | 0.00 | 90 | 1057.4 |
| 20260903235758 | 69 | 242 | 2.0 | 4.0 | 0.00 | 0.00 | 0.00 | 90 | 1057.4 |
| 20260903235743 | 69 | 242 | 2.0 | 4.0 | 0.00 | 0.00 | 0.00 | 90 | 1057.4 |
| 20260903235516 | 69 | 241 | 2.0 | 4.0 | 0.00 | 0.00 | 0.00 | 90 | 1057.4 |
| 20260903235503 | 69 | 242 | 2.0 | 4.0 | 0.00 | 0.00 | 0.00 | 90 | 1057.4 |
| 20260903235220 | 69 | 241 | 2.0 | 4.0 | 0.00 | 0.00 | 0.00 | 90 | 1057.4 |
| 20260903235208 | 69 | 241 | 2.0 | 4.0 | 0.00 | 0.00 | 0.00 | 90 | 1057.4 |
| 20260903234846 | 69 | 231 | 2.0 | 4.0 | 0.00 | 0.00 | 0.00 | 90 | 1057.5 |
| 20260903234802 | 69 | 231 | 2.0 | 4.0 | 0.00 | 0.00 | 0.00 | 89 | 1057.4 |
| 20260903234744 | 69 | 230 | 2.0 | 4.0 | 0.00 | 0.00 | 0.00 | 89 | 1057.4 |
| 20260903234657 | 69 | 231 | 2.0 | 4.0 | 0.00 | 0.00 | 0.00 | 89 | 1057.5 |
| 20260903234644 | 69 | 231 | 2.0 | 4.0 | 0.00 | 0.00 | 0.00 | 89 | 1057.5 |
| 20260903234632 | 69 | 231 | 2.0 | 4.0 | 0.00 | 0.00 | 0.00 | 89 | 1057.4 |
| 20260903234623 | 69 | 227 | 2.0 | 4.0 | 0.00 | 0.00 | 0.00 | 89 | 1057.4 |
| 20260903234612 | 69 | 228 | 2.0 | 4.0 | 0.00 | 0.00 | 0.00 | 89 | 1057.4 |
| 20260903234035 | 69 | 227 | 2.0 | 4.0 | 0.00 | 0.00 | 0.00 | 89 | 1057.4 |
| 20260903233934 | 69 | 228 | 2.0 | 4.0 | 0.00 | 0.00 | 0.00 | 89 | 1057.4 |
| 20260903233834 | 69 | 228 | 2.0 | 4.0 | 0.00 | 0.00 | 0.00 | 89 | 1057.4 |
| 20260903233805 | 69 | 228 | 2.0 | 4.0 | 0.00 | 0.00 | 0.00 | 89 | 1057.5 |
| 20260903233734 | 69 | 228 | 2.0 | 4.0 | 0.00 | 0.00 | 0.00 | 89 | 1057.5 |
| 20260903233632 | 69 | 228 | 2.0 | 4.0 | 0.00 | 0.00 | 0.00 | 89 | 1057.5 |
| 20260903233532 | 69 | 228 | 2.0 | 4.0 | 0.00 | 0.00 | 0.00 | 89 | 1057.4 |
| 20260903233432 | 69 | 228 | 2.0 | 4.0 | 0.00 | 0.00 | 0.00 | 89 | 1057.5 |
| 20260903233330 | 69 | 227 | 2.0 | 4.0 | 0.00 | 0.00 | 0.00 | 89 | 1057.5 |
| 20260903233304 | 69 | 228 | 3.0 | 4.0 | 0.00 | 0.00 | 0.00 | 89 | 1057.4 |
| 20260903233230 | 69 | 228 | 3.0 | 4.0 | 0.00 | 0.00 | 0.00 | 89 | 1057.4 |
| 20260903233133 | 69 | 228 | 3.0 | 4.0 | 0.00 | 0.00 | 0.00 | 89 | 1057.5 |
| 20260903233123 | 69 | 228 | 3.0 | 4.0 | 0.00 | 0.00 | 0.00 | 89 | 1057.5 |
| 20260903233115 | 69 | 228 | 2.0 | 4.0 | 0.00 | 0.00 | 0.00 | 89 | 1057.5 |
| 20260903233100 | 69 | 228 | 2.0 | 4.0 | 0.00 | 0.00 | 0.00 | 89 | 1057.5 |
| 20260903233053 | 69 | 227 | 2.0 | 4.0 | 0.00 | 0.00 | 0.00 | 89 | 1057.5 |
| 20260903233044 | 69 | 228 | 2.0 | 4.0 | 0.00 | 0.00 | 0.00 | 89 | 1057.5 |
| 20260903232806 | 69 | 227 | 2.0 | 4.0 | 0.00 | 0.00 | 0.00 | 89 | 1057.5 |
| 20260903232306 | 69 | 228 | 2.0 | 4.0 | 0.00 | 0.00 | 0.00 | 89 | 1057.5 |
| 20260903232224 | 69 | 228 | 2.0 | 4.0 | 0.00 | 0.00 | 0.00 | 89 | 1057.5 |
| 20260903232121 | 69 | 227 | 2.0 | 4.0 | 0.00 | 0.00 | 0.00 | 89 | 1057.5 |
| 20260903232025 | 69 | 228 | 2.0 | 3.0 | 0.00 | 0.00 | 0.00 | 89 | 1057.5 |
| 20260903231920 | 69 | 228 | 2.0 | 3.0 | 0.00 | 0.00 | 0.00 | 89 | 1057.5 |
| 20260903231835 | 69 | 227 | 2.0 | 3.0 | 0.00 | 0.00 | 0.00 | 89 | 1057.5 |
| 20260903231829 | 69 | 228 | 2.0 | 3.0 | 0.00 | 0.00 | 0.00 | 89 | 1057.5 |
| 20260903231821 | 69 | 227 | 2.0 | 3.0 | 0.00 | 0.00 | 0.00 | 89 | 1057.5 |
| 20260903231807 | 69 | 227 | 2.0 | 3.0 | 0.00 | 0.00 | 0.00 | 89 | 1057.5 |
| 20260903231539 | 69 | 227 | 2.0 | 3.0 | 0.00 | 0.00 | 0.00 | 89 | 1057.6 |
| 20260903231253 | 69 | 229 | 2.0 | 3.0 | 0.00 | 0.00 | 0.00 | 89 | 1057.6 |
| 20260903231212 | 69 | 227 | 2.0 | 3.0 | 0.00 | 0.00 | 0.00 | 89 | 1057.6 |
| 20260903231111 | 69 | 227 | 2.0 | 3.0 | 0.00 | 0.00 | 0.00 | 89 | 1057.6 |
| 20260903231006 | 70 | 227 | 2.0 | 3.0 | 0.00 | 0.00 | 0.00 | 89 | 1057.6 |
| 20260903230906 | 70 | 228 | 2.0 | 3.0 | 0.00 | 0.00 | 0.00 | 89 | 1057.6 |
| 20260903230806 | 70 | 227 | 2.0 | 3.0 | 0.00 | 0.00 | 0.00 | 89 | 1057.6 |
| 20260903230751 | 70 | 227 | 2.0 | 3.0 | 0.00 | 0.00 | 0.00 | 89 | 1057.6 |
| 20260903230706 | 70 | 227 | 2.0 | 3.0 | 0.00 | 0.00 | 0.00 | 89 | 1057.6 |
| 20260903230606 | 70 | 228 | 2.0 | 3.0 | 0.00 | 0.00 | 0.00 | 89 | 1057.6 |
| 20260903230506 | 70 | 228 | 2.0 | 3.0 | 0.00 | 0.00 | 0.00 | 89 | 1057.6 |
| 20260903230406 | 70 | 227 | 2.0 | 3.0 | 0.00 | 0.00 | 0.00 | 89 | 1057.6 |
| 20260903230306 | 70 | 228 | 2.0 | 3.0 | 0.00 | 0.00 | 0.00 | 89 | 1057.6 |
| 20260903230256 | 70 | 228 | 2.0 | 3.0 | 0.00 | 0.00 | 0.00 | 89 | 1057.6 |
| 20260903230247 | 70 | 227 | 2.0 | 3.0 | 0.00 | 0.00 | 0.00 | 89 | 1057.5 |
| 20260903230237 | 70 | 228 | 2.0 | 3.0 | 0.00 | 0.00 | 0.00 | 89 | 1057.6 |
| 20260903225902 | 70 | 227 | 2.0 | 3.0 | 0.00 | 0.00 | 0.00 | 89 | 1057.6 |
| 20260903225803 | 70 | 227 | 2.0 | 3.0 | 0.00 | 0.00 | 0.00 | 89 | 1057.6 |
| 20260903225750 | 70 | 227 | 2.0 | 3.0 | 0.00 | 0.00 | 0.00 | 89 | 1057.6 |
| 20260903225703 | 70 | 227 | 2.0 | 3.0 | 0.00 | 0.00 | 0.00 | 89 | 1057.6 |
| 20260903225604 | 70 | 227 | 1.0 | 3.0 | 0.00 | 0.00 | 0.00 | 89 | 1057.6 |
| 20260903225543 | 70 | 226 | 1.0 | 3.0 | 0.00 | 0.00 | 0.00 | 89 | 1057.6 |
| 20260903225534 | 70 | 227 | 1.0 | 3.0 | 0.00 | 0.00 | 0.00 | 89 | 1057.6 |
| 20260903225516 | 70 | 227 | 2.0 | 3.0 | 0.00 | 0.00 | 0.00 | 89 | 1057.6 |
| 20260903225509 | 70 | 227 | 2.0 | 3.0 | 0.00 | 0.00 | 0.00 | 89 | 1057.6 |
| 20260903225020 | 70 | 228 | 2.0 | 3.0 | 0.00 | 0.00 | 0.00 | 89 | 1057.6 |
| 20260903224750 | 70 | 227 | 2.0 | 3.0 | 0.00 | 0.00 | 0.00 | 89 | 1057.6 |
| 20260903224655 | 70 | 227 | 2.0 | 3.0 | 0.00 | 0.00 | 0.00 | 89 | 1057.6 |
| 20260903224555 | 70 | 227 | 2.0 | 3.0 | 0.00 | 0.00 | 0.00 | 89 | 1057.6 |
| 20260903224530 | 70 | 227 | 2.0 | 3.0 | 0.00 | 0.00 | 0.00 | 89 | 1057.6 |
| 20260903224518 | 70 | 227 | 2.0 | 3.0 | 0.00 | 0.00 | 0.00 | 89 | 1057.6 |
| 20260903224459 | 70 | 227 | 2.0 | 3.0 | 0.00 | 0.00 | 0.00 | 89 | 1057.6 |
| 20260903224145 | 70 | 227 | 2.0 | 3.0 | 0.00 | 0.00 | 0.00 | 89 | 1057.6 |
| 20260903224045 | 70 | 227 | 2.0 | 3.0 | 0.00 | 0.00 | 0.00 | 89 | 1057.6 |
| 20260903224009 | 70 | 227 | 2.0 | 3.0 | 0.00 | 0.00 | 0.00 | 89 | 1057.6 |
| 20260903223958 | 70 | 227 | 2.0 | 3.0 | 0.00 | 0.00 | 0.00 | 89 | 1057.6 |
| 20260903223939 | 70 | 227 | 2.0 | 4.0 | 0.00 | 0.00 | 0.00 | 89 | 1057.6 |
| 20260903223932 | 70 | 227 | 2.0 | 4.0 | 0.00 | 0.00 | 0.00 | 89 | 1057.6 |
| 20260903223921 | 70 | 227 | 2.0 | 4.0 | 0.00 | 0.00 | 0.00 | 89 | 1057.6 |
| 20260903223907 | 70 | 227 | 2.0 | 4.0 | 0.00 | 0.00 | 0.00 | 89 | 1057.6 |
| 20260903223859 | 70 | 228 | 2.0 | 4.0 | 0.00 | 0.00 | 0.00 | 89 | 1057.6 |
| 20260903223408 | 70 | 227 | 2.0 | 4.0 | 0.00 | 0.00 | 0.00 | 89 | 1057.6 |
| 20260903223121 | 70 | 227 | 2.0 | 4.0 | 0.00 | 0.00 | 0.00 | 89 | 1057.6 |
| 20260903223112 | 70 | 227 | 2.0 | 4.0 | 0.00 | 0.00 | 0.00 | 89 | 1057.6 |
| 20260903223101 | 70 | 227 | 2.0 | 4.0 | 0.00 | 0.00 | 0.00 | 89 | 1057.6 |
| 20260903222521 | 70 | 227 | 2.0 | 4.0 | 0.00 | 0.00 | 0.00 | 89 | 1057.6 |
| 20260903222422 | 70 | 227 | 2.0 | 4.0 | 0.00 | 0.00 | 0.00 | 89 | 1057.5 |
| 20260903222356 | 70 | 226 | 2.0 | 4.0 | 0.00 | 0.00 | 0.00 | 89 | 1057.6 |
| 20260903222341 | 70 | 227 | 2.0 | 4.0 | 0.00 | 0.00 | 0.00 | 89 | 1057.6 |
| 20260903222019 | 70 | 227 | 2.0 | 4.0 | 0.00 | 0.00 | 0.00 | 89 | 1057.6 |
| 20260903221916 | 70 | 227 | 2.0 | 4.0 | 0.00 | 0.00 | 0.00 | 89 | 1057.6 |
| 20260903221815 | 70 | 227 | 2.0 | 4.0 | 0.00 | 0.00 | 0.00 | 89 | 1057.6 |
| 20260903221745 | 70 | 226 | 2.0 | 4.0 | 0.00 | 0.00 | 0.00 | 89 | 1057.6 |
| 20260903221707 | 70 | 227 | 2.0 | 4.0 | 0.00 | 0.00 | 0.00 | 89 | 1057.6 |
| 20260903221607 | 70 | 227 | 2.0 | 4.0 | 0.00 | 0.00 | 0.00 | 89 | 1057.6 |
| 20260903221507 | 70 | 227 | 2.0 | 4.0 | 0.00 | 0.00 | 0.00 | 89 | 1057.6 |
| 20260903221407 | 70 | 227 | 2.0 | 4.0 | 0.00 | 0.00 | 0.00 | 89 | 1057.6 |
| 20260903221339 | 70 | 228 | 2.0 | 4.0 | 0.00 | 0.00 | 0.00 | 89 | 1057.6 |
| 20260903221331 | 70 | 227 | 2.0 | 4.0 | 0.00 | 0.00 | 0.00 | 89 | 1057.6 |
| 20260903221326 | 70 | 226 | 2.0 | 4.0 | 0.00 | 0.00 | 0.00 | 89 | 1057.6 |
| 20260903221003 | 70 | 227 | 2.0 | 4.0 | 0.00 | 0.00 | 0.00 | 88 | 1057.6 |
| 20260903220904 | 70 | 227 | 2.0 | 4.0 | 0.00 | 0.00 | 0.00 | 88 | 1057.6 |
| 20260903220804 | 71 | 227 | 2.0 | 3.0 | 0.00 | 0.00 | 0.00 | 88 | 1057.6 |
| 20260903220746 | 71 | 226 | 2.0 | 3.0 | 0.00 | 0.00 | 0.00 | 88 | 1057.6 |
| 20260903220704 | 71 | 226 | 2.0 | 3.0 | 0.00 | 0.00 | 0.00 | 88 | 1057.6 |
| 20260903220607 | 71 | 227 | 2.0 | 3.0 | 0.00 | 0.00 | 0.00 | 88 | 1057.7 |
| 20260903220503 | 71 | 227 | 2.0 | 3.0 | 0.00 | 0.00 | 0.00 | 88 | 1057.7 |
| 20260903220401 | 71 | 227 | 2.0 | 3.0 | 0.00 | 0.00 | 0.00 | 88 | 1057.7 |
| 20260903220243 | 71 | 227 | 2.0 | 3.0 | 0.00 | 0.00 | 0.00 | 88 | 1057.7 |
| 20260903220159 | 71 | 227 | 2.0 | 3.0 | 0.00 | 0.00 | 0.00 | 88 | 1057.6 |
| 20260903220059 | 71 | 227 | 2.0 | 3.0 | 0.00 | 0.00 | 0.00 | 88 | 1057.7 |
| 20260903215958 | 71 | 226 | 2.0 | 3.0 | 0.00 | 0.00 | 0.00 | 88 | 1057.7 |
| 20260903215858 | 71 | 227 | 2.0 | 3.0 | 0.00 | 0.00 | 0.00 | 88 | 1057.6 |
| 20260903215742 | 71 | 227 | 2.0 | 3.0 | 0.00 | 0.00 | 0.00 | 88 | 1057.7 |
| 20260903215658 | 71 | 227 | 2.0 | 3.0 | 0.00 | 0.00 | 0.00 | 88 | 1057.6 |
| 20260903215558 | 71 | 226 | 2.0 | 3.0 | 0.00 | 0.00 | 0.00 | 88 | 1057.7 |
| 20260903215536 | 71 | 226 | 2.0 | 3.0 | 0.00 | 0.00 | 0.00 | 88 | 1057.6 |
| 20260903215529 | 71 | 227 | 1.0 | 3.0 | 0.00 | 0.00 | 0.00 | 88 | 1057.6 |
| 20260903215512 | 71 | 227 | 1.0 | 3.0 | 0.00 | 0.00 | 0.00 | 88 | 1057.6 |
| 20260903215504 | 71 | 227 | 1.0 | 3.0 | 0.00 | 0.00 | 0.00 | 88 | 1057.7 |
| 20260903215449 | 71 | 226 | 1.0 | 3.0 | 0.00 | 0.00 | 0.00 | 88 | 1057.7 |
| 20260903214955 | 71 | 227 | 1.0 | 3.0 | 0.00 | 0.00 | 0.00 | 88 | 1057.7 |
| 20260903214650 | 71 | 226 | 1.0 | 3.0 | 0.00 | 0.00 | 0.00 | 88 | 1057.7 |
| 20260903214550 | 71 | 226 | 1.0 | 3.0 | 0.00 | 0.00 | 0.00 | 88 | 1057.7 |
| 20260903214450 | 71 | 226 | 1.0 | 3.0 | 0.00 | 0.00 | 0.00 | 88 | 1057.7 |
| 20260903214350 | 71 | 227 | 1.0 | 3.0 | 0.00 | 0.00 | 0.00 | 88 | 1057.7 |
| 20260903214239 | 71 | 227 | 1.0 | 3.0 | 0.00 | 0.00 | 0.00 | 88 | 1057.7 |
| 20260903214223 | 71 | 227 | 1.0 | 3.0 | 0.00 | 0.00 | 0.00 | 88 | 1057.6 |
| 20260903214211 | 71 | 227 | 1.0 | 3.0 | 0.00 | 0.00 | 0.00 | 88 | 1057.7 |
| 20260903213850 | 71 | 227 | 2.0 | 3.0 | 0.00 | 0.00 | 0.00 | 88 | 1057.6 |
| 20260903213752 | 71 | 227 | 2.0 | 4.0 | 0.00 | 0.00 | 0.00 | 87 | 1057.7 |
| 20260903213738 | 71 | 226 | 2.0 | 4.0 | 0.00 | 0.00 | 0.00 | 87 | 1057.7 |
| 20260903213714 | 71 | 226 | 2.0 | 4.0 | 0.00 | 0.00 | 0.00 | 87 | 1057.7 |
| 20260903213703 | 71 | 226 | 2.0 | 4.0 | 0.00 | 0.00 | 0.00 | 87 | 1057.7 |
| 20260903213651 | 71 | 227 | 2.0 | 4.0 | 0.00 | 0.00 | 0.00 | 87 | 1057.7 |
| 20260903213641 | 71 | 226 | 2.0 | 4.0 | 0.00 | 0.00 | 0.00 | 87 | 1057.7 |
| 20260903213631 | 71 | 227 | 2.0 | 4.0 | 0.00 | 0.00 | 0.00 | 87 | 1057.7 |
| 20260903213050 | 72 | 226 | 2.0 | 4.0 | 0.00 | 0.00 | 0.00 | 87 | 1057.7 |
| 20260903212950 | 72 | 226 | 2.0 | 4.0 | 0.00 | 0.00 | 0.00 | 88 | 1057.6 |
| 20260903212850 | 72 | 227 | 2.0 | 4.0 | 0.00 | 0.00 | 0.00 | 88 | 1057.7 |
| 20260903212737 | 72 | 227 | 2.0 | 4.0 | 0.00 | 0.00 | 0.00 | 88 | 1057.7 |
| 20260903212702 | 72 | 226 | 2.0 | 3.0 | 0.00 | 0.00 | 0.00 | 88 | 1057.6 |
| 20260903212650 | 72 | 226 | 2.0 | 3.0 | 0.00 | 0.00 | 0.00 | 88 | 1057.7 |
| 20260903212635 | 72 | 225 | 2.0 | 3.0 | 0.00 | 0.00 | 0.00 | 87 | 1057.7 |
| 20260903212353 | 72 | 225 | 2.0 | 3.0 | 0.00 | 0.00 | 0.00 | 87 | 1057.7 |
| 20260903212340 | 72 | 225 | 2.0 | 3.0 | 0.00 | 0.00 | 0.00 | 87 | 1057.7 |
| 20260903212107 | 72 | 224 | 2.0 | 3.0 | 0.00 | 0.00 | 0.00 | 87 | 1057.7 |
| 20260903211738 | 72 | 225 | 1.0 | 3.0 | 0.00 | 0.00 | 0.00 | 87 | 1057.6 |
| 20260903211714 | 72 | 225 | 1.0 | 3.0 | 0.00 | 0.00 | 0.00 | 87 | 1057.6 |
| 20260903211703 | 72 | 224 | 1.0 | 3.0 | 0.00 | 0.00 | 0.00 | 87 | 1057.6 |
| 20260903211651 | 72 | 225 | 1.0 | 3.0 | 0.00 | 0.00 | 0.00 | 87 | 1057.6 |
| 20260903211638 | 72 | 225 | 1.0 | 3.0 | 0.00 | 0.00 | 0.00 | 87 | 1057.6 |
| 20260903211414 | 72 | 224 | 1.0 | 2.0 | 0.00 | 0.00 | 0.00 | 87 | 1057.6 |
| 20260903211120 | 72 | 225 | 1.0 | 2.0 | 0.00 | 0.00 | 0.00 | 87 | 1057.7 |
| 20260903211107 | 72 | 225 | 1.0 | 2.0 | 0.00 | 0.00 | 0.00 | 87 | 1057.7 |
| 20260903210825 | 72 | 224 | 1.0 | 2.0 | 0.00 | 0.00 | 0.00 | 87 | 1057.7 |
| 20260903210820 | 72 | 225 | 1.0 | 2.0 | 0.00 | 0.00 | 0.00 | 87 | 1057.7 |
| 20260903210812 | 73 | 225 | 1.0 | 3.0 | 0.00 | 0.00 | 0.00 | 87 | 1057.6 |
| 20260903210445 | 73 | 225 | 1.0 | 3.0 | 0.00 | 0.00 | 0.00 | 87 | 1057.6 |
| 20260903210346 | 73 | 225 | 2.0 | 3.0 | 0.00 | 0.00 | 0.00 | 87 | 1057.7 |
| 20260903210246 | 73 | 225 | 2.0 | 3.0 | 0.00 | 0.00 | 0.00 | 87 | 1057.6 |
| 20260903210234 | 73 | 224 | 2.0 | 3.0 | 0.00 | 0.00 | 0.00 | 87 | 1057.6 |
| 20260903210146 | 73 | 224 | 2.0 | 3.0 | 0.00 | 0.00 | 0.00 | 87 | 1057.7 |
| 20260903210110 | 73 | 225 | 2.0 | 3.0 | 0.00 | 0.00 | 0.00 | 87 | 1057.7 |
| 20260903210050 | 73 | 225 | 2.0 | 3.0 | 0.00 | 0.00 | 0.00 | 87 | 1057.6 |
| 20260903210035 | 73 | 225 | 2.0 | 3.0 | 0.00 | 0.00 | 0.00 | 86 | 1057.7 |
| 20260903205813 | 73 | 225 | 1.0 | 3.0 | 0.00 | 0.00 | 0.00 | 86 | 1057.6 |
| 20260903205520 | 73 | 226 | 1.0 | 3.0 | 0.00 | 0.00 | 0.00 | 86 | 1057.7 |
| 20260903205512 | 73 | 226 | 1.0 | 3.0 | 0.00 | 0.00 | 0.00 | 86 | 1057.6 |
| 20260903205235 | 73 | 225 | 1.0 | 3.0 | 0.00 | 0.00 | 0.00 | 86 | 1057.6 |
| 20260903205146 | 73 | 225 | 0.0 | 3.0 | 0.00 | 0.00 | 0.00 | 86 | 1057.7 |
| 20260903205046 | 73 | 225 | 0.0 | 2.0 | 0.00 | 0.00 | 0.00 | 86 | 1057.7 |
| 20260903204946 | 73 | 225 | 0.0 | 2.0 | 0.00 | 0.00 | 0.00 | 86 | 1057.7 |
| 20260903204844 | 73 | 225 | 0.0 | 2.0 | 0.00 | 0.00 | 0.00 | 86 | 1057.7 |
| 20260903204731 | 73 | 225 | 0.0 | 0.0 | 0.00 | 0.00 | 0.00 | 86 | 1057.7 |
| 20260903204642 | 73 | 225 | 0.0 | 0.0 | 0.00 | 0.00 | 0.00 | 86 | 1057.7 |
| 20260903204541 | 73 | 224 | 0.0 | 0.0 | 0.00 | 0.00 | 0.00 | 86 | 1057.7 |
| 20260903204458 | 73 | 225 | 0.0 | 0.0 | 0.00 | 0.00 | 0.00 | 86 | 1057.7 |
| 20260903204448 | 73 | 224 | 0.0 | 0.0 | 0.00 | 0.00 | 0.00 | 86 | 1057.7 |
| 20260903204434 | 73 | 225 | 0.0 | 0.0 | 0.00 | 0.00 | 0.00 | 85 | 1057.7 |
| 20260903204428 | 73 | 226 | 0.0 | 0.0 | 0.00 | 0.00 | 0.00 | 85 | 1057.7 |
| 20260903204154 | 74 | 224 | 0.0 | 0.0 | 0.00 | 0.00 | 0.00 | 85 | 1057.7 |
| 20260903204142 | 74 | 224 | 0.0 | 0.0 | 0.00 | 0.00 | 0.00 | 85 | 1057.7 |
| 20260903204132 | 74 | 224 | 0.0 | 0.0 | 0.00 | 0.00 | 0.00 | 85 | 1057.6 |
| 20260903203906 | 74 | 225 | 0.0 | 0.0 | 0.00 | 0.00 | 0.00 | 85 | 1057.7 |
| 20260903203532 | 74 | 225 | 0.0 | 0.0 | 0.00 | 0.00 | 0.00 | 85 | 1057.7 |
| 20260903203431 | 74 | 225 | 0.0 | 0.0 | 0.00 | 0.00 | 0.00 | 85 | 1057.7 |
| 20260903203331 | 74 | 225 | 0.0 | 2.0 | 0.00 | 0.00 | 0.00 | 85 | 1057.7 |
| 20260903203241 | 74 | 226 | 0.0 | 2.0 | 0.00 | 0.00 | 0.00 | 85 | 1057.7 |
| 20260903203231 | 74 | 225 | 0.0 | 2.0 | 0.00 | 0.00 | 0.00 | 85 | 1057.7 |
| 20260903203133 | 74 | 225 | 0.0 | 2.0 | 0.00 | 0.00 | 0.00 | 85 | 1057.7 |
| 20260903203120 | 74 | 225 | 0.0 | 2.0 | 0.00 | 0.00 | 0.00 | 85 | 1057.6 |
| 20260903203112 | 74 | 225 | 0.0 | 2.0 | 0.00 | 0.00 | 0.00 | 84 | 1057.6 |
| 20260903203100 | 74 | 225 | 0.0 | 2.0 | 0.00 | 0.00 | 0.00 | 84 | 1057.7 |
| 20260903203049 | 74 | 224 | 0.0 | 2.0 | 0.00 | 0.00 | 0.00 | 84 | 1057.7 |
| 20260903203044 | 74 | 225 | 0.0 | 2.0 | 0.00 | 0.00 | 0.00 | 84 | 1057.7 |
| 20260903203036 | 74 | 225 | 0.0 | 2.0 | 0.00 | 0.00 | 0.00 | 84 | 1057.7 |
| 20260903203025 | 74 | 225 | 0.0 | 2.0 | 0.00 | 0.00 | 0.00 | 84 | 1057.7 |
| 20260903202525 | 74 | 224 | 0.0 | 2.0 | 0.00 | 0.00 | 0.00 | 84 | 1057.6 |
| 20260903202257 | 75 | 224 | 0.0 | 2.0 | 0.00 | 0.00 | 0.00 | 84 | 1057.6 |
| 20260903202021 | 75 | 225 | 0.0 | 2.0 | 0.00 | 0.00 | 0.00 | 84 | 1057.6 |
| 20260903202011 | 75 | 225 | 0.0 | 2.0 | 0.00 | 0.00 | 0.00 | 83 | 1057.6 |
| 20260903201951 | 75 | 225 | 0.0 | 2.0 | 0.00 | 0.00 | 0.00 | 83 | 1057.5 |
| 20260903201941 | 75 | 225 | 0.0 | 2.0 | 0.00 | 0.00 | 0.00 | 83 | 1057.5 |
| 20260903201710 | 75 | 225 | 0.0 | 2.0 | 0.00 | 0.00 | 0.00 | 84 | 1057.5 |
| 20260903201445 | 75 | 225 | 0.0 | 2.0 | 0.00 | 0.00 | 0.00 | 84 | 1057.5 |
| 20260903201438 | 75 | 224 | 0.0 | 2.0 | 0.00 | 0.00 | 0.00 | 84 | 1057.5 |
| 20260903201430 | 75 | 224 | 0.0 | 2.0 | 0.00 | 0.00 | 0.00 | 84 | 1057.5 |
| 20260903201419 | 75 | 225 | 0.0 | 2.0 | 0.00 | 0.00 | 0.00 | 84 | 1057.4 |
| 20260903201404 | 75 | 224 | 0.0 | 2.0 | 0.00 | 0.00 | 0.00 | 84 | 1057.4 |
| 20260903200918 | 75 | 225 | 0.0 | 2.0 | 0.00 | 0.00 | 0.00 | 84 | 1057.4 |
| 20260903200907 | 75 | 225 | 1.0 | 2.0 | 0.00 | 0.00 | 0.00 | 84 | 1057.5 |
| 20260903200844 | 75 | 225 | 1.0 | 2.0 | 0.00 | 0.00 | 0.00 | 84 | 1057.5 |
| 20260903200835 | 75 | 225 | 1.0 | 2.0 | 0.00 | 0.00 | 0.00 | 84 | 1057.5 |
| 20260903200825 | 75 | 225 | 1.0 | 2.0 | 0.00 | 0.00 | 0.00 | 84 | 1057.4 |
| 20260903200337 | 76 | 225 | 1.0 | 2.0 | 0.00 | 0.00 | 0.00 | 84 | 1057.5 |
| 20260903200106 | 76 | 225 | 1.0 | 2.0 | 0.00 | 0.00 | 0.00 | 83 | 1057.4 |
| 20260903195833 | 76 | 225 | 1.0 | 2.0 | 0.00 | 0.00 | 0.00 | 83 | 1057.4 |
| 20260903195504 | 76 | 225 | 1.0 | 2.0 | 0.00 | 0.00 | 0.00 | 83 | 1057.4 |
| 20260903195424 | 76 | 226 | 1.0 | 2.0 | 0.00 | 0.00 | 0.00 | 83 | 1057.4 |
| 20260903195412 | 76 | 225 | 1.0 | 2.0 | 0.00 | 0.00 | 0.00 | 83 | 1057.4 |
| 20260903195404 | 76 | 224 | 1.0 | 2.0 | 0.00 | 0.00 | 0.00 | 83 | 1057.4 |
| 20260903195352 | 76 | 225 | 1.0 | 2.0 | 0.00 | 0.00 | 0.00 | 83 | 1057.4 |
| 20260903195121 | 76 | 225 | 1.0 | 2.0 | 0.00 | 0.00 | 0.00 | 83 | 1057.4 |
| 20260903194759 | 76 | 225 | 1.0 | 3.0 | 0.00 | 0.00 | 0.00 | 83 | 1057.4 |
| 20260903194731 | 76 | 224 | 1.0 | 3.0 | 0.00 | 0.00 | 0.00 | 83 | 1057.4 |
| 20260903194659 | 76 | 225 | 1.0 | 3.0 | 0.00 | 0.00 | 0.00 | 83 | 1057.3 |
| 20260903194600 | 76 | 225 | 1.0 | 3.0 | 0.00 | 0.00 | 0.00 | 83 | 1057.4 |
| 20260903194457 | 76 | 224 | 1.0 | 3.0 | 0.00 | 0.00 | 0.00 | 83 | 1057.3 |
| 20260903194402 | 76 | 225 | 1.0 | 3.0 | 0.00 | 0.00 | 0.00 | 83 | 1057.4 |
| 20260903194257 | 76 | 224 | 1.0 | 4.0 | 0.00 | 0.00 | 0.00 | 83 | 1057.4 |
| 20260903194232 | 76 | 225 | 1.0 | 4.0 | 0.00 | 0.00 | 0.00 | 83 | 1057.4 |
| 20260903194157 | 76 | 225 | 1.0 | 4.0 | 0.00 | 0.00 | 0.00 | 83 | 1057.3 |
| 20260903194058 | 76 | 225 | 2.0 | 4.0 | 0.00 | 0.00 | 0.00 | 83 | 1057.3 |
| 20260903193953 | 76 | 225 | 2.0 | 5.0 | 0.00 | 0.00 | 0.00 | 82 | 1057.3 |
| 20260903193853 | 76 | 224 | 2.0 | 5.0 | 0.00 | 0.00 | 0.00 | 82 | 1057.3 |
| 20260903193751 | 76 | 227 | 2.0 | 5.0 | 0.00 | 0.00 | 0.00 | 82 | 1057.3 |
| 20260903193742 | 76 | 228 | 2.0 | 5.0 | 0.00 | 0.00 | 0.00 | 82 | 1057.3 |
| 20260903193735 | 76 | 228 | 2.0 | 5.0 | 0.00 | 0.00 | 0.00 | 82 | 1057.3 |
| 20260903193725 | 76 | 228 | 2.0 | 5.0 | 0.00 | 0.00 | 0.00 | 82 | 1057.3 |
| 20260903193717 | 76 | 228 | 2.0 | 5.0 | 0.00 | 0.00 | 0.00 | 82 | 1057.2 |
| 20260903193707 | 76 | 228 | 1.0 | 5.0 | 0.00 | 0.00 | 0.00 | 82 | 1057.2 |
| 20260903193145 | 76 | 227 | 1.0 | 5.0 | 0.00 | 0.00 | 0.00 | 82 | 1057.2 |
| 20260903193043 | 76 | 227 | 1.0 | 5.0 | 0.00 | 0.00 | 0.00 | 82 | 1057.2 |
| 20260903193012 | 76 | 234 | 1.0 | 5.0 | 0.00 | 0.00 | 0.00 | 82 | 1057.2 |
| 20260903193005 | 76 | 206 | 1.0 | 3.0 | 0.00 | 0.00 | 0.00 | 82 | 1057.1 |
| 20260903192947 | 76 | 206 | 1.0 | 4.0 | 0.00 | 0.00 | 0.00 | 82 | 1057.2 |
| 20260903192641 | 76 | 206 | 1.0 | 4.0 | 0.00 | 0.00 | 0.00 | 82 | 1057.1 |
| 20260903192541 | 76 | 206 | 1.0 | 4.0 | 0.00 | 0.00 | 0.00 | 81 | 1057.1 |
| 20260903192441 | 77 | 206 | 1.0 | 4.0 | 0.00 | 0.00 | 0.00 | 81 | 1057.1 |
| 20260903192339 | 77 | 206 | 1.0 | 4.0 | 0.00 | 0.00 | 0.00 | 81 | 1057.1 |
| 20260903192306 | 77 | 206 | 1.0 | 4.0 | 0.00 | 0.00 | 0.00 | 81 | 1057.0 |
| 20260903192255 | 77 | 207 | 1.0 | 4.0 | 0.00 | 0.00 | 0.00 | 81 | 1057.0 |
| 20260903192245 | 77 | 207 | 1.0 | 4.0 | 0.00 | 0.00 | 0.00 | 81 | 1057.0 |
| 20260903192230 | 77 | 207 | 1.0 | 4.0 | 0.00 | 0.00 | 0.00 | 81 | 1057.0 |
| 20260903192003 | 77 | 206 | 1.0 | 4.0 | 0.00 | 0.00 | 0.00 | 81 | 1057.0 |
| 20260903191731 | 77 | 206 | 1.0 | 4.0 | 0.00 | 0.00 | 0.00 | 81 | 1057.0 |
| 20260903191637 | 77 | 205 | 1.0 | 4.0 | 0.00 | 0.00 | 0.00 | 81 | 1057.0 |
| 20260903191536 | 77 | 206 | 1.0 | 4.0 | 0.00 | 0.00 | 0.00 | 81 | 1056.9 |
| 20260903191437 | 77 | 204 | 1.0 | 5.0 | 0.00 | 0.00 | 0.00 | 81 | 1056.9 |
| 20260903191335 | 77 | 204 | 1.0 | 5.0 | 0.00 | 0.00 | 0.00 | 81 | 1057.0 |
| 20260903191234 | 77 | 203 | 2.0 | 5.0 | 0.00 | 0.00 | 0.00 | 81 | 1056.9 |
| 20260903191227 | 77 | 204 | 2.0 | 5.0 | 0.00 | 0.00 | 0.00 | 81 | 1056.9 |
| 20260903191132 | 77 | 203 | 2.0 | 5.0 | 0.00 | 0.00 | 0.00 | 81 | 1057.0 |
| 20260903191033 | 77 | 204 | 2.0 | 5.0 | 0.00 | 0.00 | 0.00 | 81 | 1056.9 |
| 20260903191018 | 77 | 204 | 2.0 | 5.0 | 0.00 | 0.00 | 0.00 | 81 | 1056.9 |
| 20260903191003 | 77 | 204 | 2.0 | 5.0 | 0.00 | 0.00 | 0.00 | 81 | 1056.9 |
| 20260903190722 | 77 | 205 | 2.0 | 5.0 | 0.00 | 0.00 | 0.00 | 81 | 1056.9 |
| 20260903190642 | 77 | 204 | 2.0 | 5.0 | 0.00 | 0.00 | 0.00 | 80 | 1056.8 |
| 20260903190631 | 77 | 204 | 2.0 | 5.0 | 0.00 | 0.00 | 0.00 | 80 | 1056.9 |
| 20260903190623 | 77 | 166 | 2.0 | 5.0 | 0.00 | 0.00 | 0.00 | 80 | 1056.8 |
| 20260903190608 | 77 | 169 | 1.0 | 4.0 | 0.00 | 0.00 | 0.00 | 80 | 1056.8 |
| 20260903190557 | 77 | 169 | 1.0 | 4.0 | 0.00 | 0.00 | 0.00 | 80 | 1056.8 |
| 20260903190549 | 77 | 168 | 1.0 | 4.0 | 0.00 | 0.00 | 0.00 | 80 | 1056.8 |
| 20260903190543 | 77 | 168 | 1.0 | 4.0 | 0.00 | 0.00 | 0.00 | 80 | 1056.8 |
| 20260903190315 | 77 | 168 | 1.0 | 6.0 | 0.00 | 0.00 | 0.00 | 80 | 1056.8 |
| 20260903190037 | 77 | 168 | 2.0 | 6.0 | 0.00 | 0.00 | 0.00 | 80 | 1056.7 |
| 20260903185810 | 77 | 167 | 2.0 | 6.0 | 0.00 | 0.00 | 0.00 | 80 | 1056.7 |
| 20260903185543 | 77 | 172 | 2.0 | 6.0 | 0.00 | 0.00 | 0.00 | 80 | 1056.7 |
| 20260903185531 | 77 | 172 | 2.0 | 6.0 | 0.00 | 0.00 | 0.00 | 80 | 1056.7 |
| 20260903185519 | 77 | 171 | 2.0 | 6.0 | 0.00 | 0.00 | 0.00 | 80 | 1056.6 |
| 20260903185253 | 77 | 170 | 2.0 | 6.0 | 0.00 | 0.00 | 0.00 | 80 | 1056.6 |
| 20260903184925 | 77 | 176 | 2.0 | 6.0 | 0.00 | 0.00 | 0.00 | 79 | 1056.6 |
| 20260903184824 | 77 | 119 | 2.0 | 6.0 | 0.00 | 0.00 | 0.00 | 79 | 1056.6 |
| 20260903184724 | 77 | 117 | 2.0 | 6.0 | 0.00 | 0.00 | 0.00 | 79 | 1056.6 |
| 20260903184705 | 77 | 117 | 2.0 | 6.0 | 0.00 | 0.00 | 0.00 | 79 | 1056.5 |
| 20260903184623 | 77 | 111 | 2.0 | 6.0 | 0.00 | 0.00 | 0.00 | 79 | 1056.5 |
| 20260903184521 | 77 | 110 | 2.0 | 6.0 | 0.00 | 0.00 | 0.00 | 79 | 1056.6 |
| 20260903184421 | 77 | 110 | 2.0 | 6.0 | 0.00 | 0.00 | 0.00 | 79 | 1056.5 |
| 20260903184322 | 78 | 111 | 2.0 | 6.0 | 0.00 | 0.00 | 0.00 | 79 | 1056.5 |
| 20260903184305 | 78 | 110 | 2.0 | 6.0 | 0.00 | 0.00 | 0.00 | 79 | 1056.5 |
| 20260903184259 | 78 | 111 | 2.0 | 6.0 | 0.00 | 0.00 | 0.00 | 79 | 1056.5 |
| 20260903184252 | 78 | 93 | 2.0 | 6.0 | 0.00 | 0.00 | 0.00 | 79 | 1056.5 |
| 20260903184237 | 78 | 113 | 2.0 | 9.0 | 0.00 | 0.00 | 0.00 | 78 | 1056.5 |
| 20260903184226 | 78 | 108 | 2.0 | 9.0 | 0.00 | 0.00 | 0.00 | 78 | 1056.4 |
| 20260903184218 | 78 | 106 | 3.0 | 9.0 | 0.00 | 0.00 | 0.00 | 78 | 1056.4 |
| 20260903184152 | 78 | 138 | 3.0 | 9.0 | 0.00 | 0.00 | 0.00 | 78 | 1056.4 |
| 20260903184143 | 78 | 138 | 3.0 | 9.0 | 0.00 | 0.00 | 0.00 | 78 | 1056.4 |
| 20260903184132 | 78 | 137 | 3.0 | 9.0 | 0.00 | 0.00 | 0.00 | 78 | 1056.3 |
| 20260903183205 | 78 | 122 | 3.0 | 9.0 | 0.00 | 0.00 | 0.00 | 77 | 1056.3 |
| 20260903183150 | 78 | 135 | 3.0 | 6.0 | 0.00 | 0.00 | 0.00 | 77 | 1056.3 |
| 20260903183138 | 78 | 100 | 3.0 | 6.0 | 0.00 | 0.00 | 0.00 | 77 | 1056.3 |
| 20260903182905 | 78 | 106 | 2.0 | 6.0 | 0.00 | 0.00 | 0.00 | 77 | 1056.3 |
| 20260903182858 | 78 | 113 | 2.0 | 6.0 | 0.00 | 0.00 | 0.00 | 77 | 1056.3 |
| 20260903182631 | 78 | 146 | 2.0 | 5.0 | 0.00 | 0.00 | 0.00 | 76 | 1056.3 |
| 20260903182306 | 78 | 212 | 3.0 | 7.0 | 0.00 | 0.00 | 0.00 | 76 | 1056.2 |
| 20260903182246 | 78 | 203 | 3.0 | 7.0 | 0.00 | 0.00 | 0.00 | 76 | 1056.2 |
| 20260903182237 | 78 | 203 | 3.0 | 7.0 | 0.00 | 0.00 | 0.00 | 76 | 1056.2 |
| 20260903181905 | 79 | 204 | 3.0 | 7.0 | 0.00 | 0.00 | 0.00 | 76 | 1056.2 |
| 20260903181805 | 79 | 204 | 3.0 | 8.0 | 0.00 | 0.00 | 0.00 | 76 | 1056.2 |
| 20260903181705 | 79 | 218 | 4.0 | 8.0 | 0.00 | 0.00 | 0.00 | 76 | 1056.2 |
| 20260903181607 | 79 | 190 | 4.0 | 8.0 | 0.00 | 0.00 | 0.00 | 75 | 1056.3 |
| 20260903181505 | 79 | 189 | 4.0 | 8.0 | 0.00 | 0.00 | 0.00 | 75 | 1056.3 |
| 20260903181404 | 79 | 199 | 4.0 | 9.0 | 0.00 | 0.00 | 0.00 | 75 | 1056.3 |
| 20260903181305 | 79 | 123 | 4.0 | 9.0 | 0.00 | 0.00 | 0.00 | 75 | 1056.3 |
| 20260903181223 | 79 | 123 | 4.0 | 9.0 | 0.00 | 0.00 | 0.00 | 75 | 1056.3 |
| 20260903181214 | 79 | 123 | 4.0 | 9.0 | 0.00 | 0.00 | 0.00 | 75 | 1056.3 |
| 20260903181159 | 79 | 135 | 4.0 | 9.0 | 0.00 | 0.00 | 0.00 | 74 | 1056.2 |
| 20260903180933 | 79 | 99 | 4.0 | 9.0 | 0.00 | 0.00 | 0.00 | 74 | 1056.3 |
| 20260903180917 | 79 | 125 | 4.0 | 9.0 | 0.00 | 0.00 | 0.00 | 74 | 1056.2 |
| 20260903180607 | 80 | 108 | 3.0 | 9.0 | 0.00 | 0.00 | 0.00 | 73 | 1056.1 |
| 20260903180503 | 80 | 86 | 3.0 | 8.0 | 0.00 | 0.00 | 0.00 | 73 | 1056.1 |
| 20260903180404 | 80 | 111 | 3.0 | 9.0 | 0.00 | 0.00 | 0.00 | 73 | 1056.1 |
| 20260903180303 | 80 | 181 | 3.0 | 9.0 | 0.00 | 0.00 | 0.00 | 73 | 1056.1 |
| 20260903180212 | 80 | 193 | 4.0 | 9.0 | 0.00 | 0.00 | 0.00 | 73 | 1056.1 |
| 20260903180202 | 80 | 193 | 4.0 | 9.0 | 0.00 | 0.00 | 0.00 | 73 | 1056.1 |
| 20260903180029 | 80 | 211 | 4.0 | 12.0 | 0.00 | 0.00 | 0.00 | 73 | 1056.0 |
| 20260903180020 | 80 | 212 | 5.0 | 12.0 | 0.00 | 0.00 | 0.00 | 73 | 1056.0 |
| 20260903175708 | 80 | 193 | 5.0 | 12.0 | 0.00 | 0.00 | 0.00 | 72 | 1056.0 |
| 20260903175656 | 80 | 192 | 5.0 | 12.0 | 0.00 | 0.00 | 0.00 | 72 | 1056.0 |
| 20260903175556 | 80 | 163 | 6.0 | 13.0 | 0.00 | 0.00 | 0.00 | 72 | 1056.0 |
| 20260903175456 | 80 | 160 | 7.0 | 16.0 | 0.00 | 0.00 | 0.00 | 72 | 1056.1 |
| 20260903175432 | 80 | 239 | 7.0 | 16.0 | 0.00 | 0.00 | 0.00 | 72 | 1056.1 |
| 20260903175424 | 81 | 195 | 6.0 | 16.0 | 0.00 | 0.00 | 0.00 | 72 | 1056.0 |
| 20260903175413 | 81 | 183 | 7.0 | 16.0 | 0.00 | 0.00 | 0.00 | 72 | 1056.0 |
| 20260903175124 | 81 | 231 | 6.0 | 16.0 | 0.00 | 0.00 | 0.00 | 72 | 1056.0 |
| 20260903175116 | 81 | 189 | 6.0 | 16.0 | 0.00 | 0.00 | 0.00 | 71 | 1056.1 |
| 20260903174743 | 81 | 229 | 6.0 | 16.0 | 0.00 | 0.00 | 0.00 | 71 | 1056.1 |
| 20260903174702 | 81 | 224 | 6.0 | 16.0 | 0.00 | 0.00 | 0.00 | 71 | 1056.2 |
| 20260903174640 | 81 | 179 | 6.0 | 16.0 | 0.00 | 0.00 | 0.00 | 71 | 1056.2 |
| 20260903174616 | 81 | 199 | 5.0 | 16.0 | 0.00 | 0.00 | 0.00 | 71 | 1056.1 |
| 20260903174605 | 81 | 216 | 5.0 | 11.0 | 0.00 | 0.00 | 0.00 | 71 | 1056.2 |
| 20260903174323 | 81 | 243 | 4.0 | 11.0 | 0.00 | 0.00 | 0.00 | 71 | 1056.2 |
| 20260903174312 | 81 | 226 | 4.0 | 11.0 | 0.00 | 0.00 | 0.00 | 71 | 1056.3 |
| 20260903174307 | 82 | 198 | 4.0 | 11.0 | 0.00 | 0.00 | 0.00 | 71 | 1056.3 |
| 20260903173936 | 82 | 172 | 4.0 | 11.0 | 0.00 | 0.00 | 0.00 | 71 | 1056.2 |
| 20260903173836 | 82 | 220 | 4.0 | 11.0 | 0.00 | 0.00 | 0.00 | 70 | 1056.2 |
| 20260903173818 | 82 | 253 | 4.0 | 11.0 | 0.00 | 0.00 | 0.00 | 70 | 1056.2 |
| 20260903173805 | 82 | 200 | 4.0 | 11.0 | 0.00 | 0.00 | 0.00 | 71 | 1056.2 |
| 20260903173759 | 82 | 201 | 4.0 | 11.0 | 0.00 | 0.00 | 0.00 | 71 | 1056.2 |
| 20260903173437 | 82 | 208 | 4.0 | 11.0 | 0.00 | 0.00 | 0.00 | 70 | 1056.2 |
| 20260903173337 | 82 | 187 | 4.0 | 11.0 | 0.00 | 0.00 | 0.00 | 70 | 1056.2 |
| 20260903173239 | 82 | 187 | 4.0 | 11.0 | 0.00 | 0.00 | 0.00 | 70 | 1056.2 |
| 20260903173203 | 82 | 187 | 4.0 | 11.0 | 0.00 | 0.00 | 0.00 | 70 | 1056.1 |
| 20260903173135 | 82 | 189 | 4.0 | 11.0 | 0.00 | 0.00 | 0.00 | 70 | 1056.1 |
| 20260903173035 | 82 | 162 | 4.0 | 11.0 | 0.00 | 0.00 | 0.00 | 70 | 1056.1 |
| 20260903172932 | 82 | 157 | 4.0 | 11.0 | 0.00 | 0.00 | 0.00 | 70 | 1056.2 |
| 20260903172832 | 82 | 191 | 3.0 | 11.0 | 0.00 | 0.00 | 0.00 | 70 | 1056.2 |
| 20260903172733 | 82 | 234 | 3.0 | 11.0 | 0.00 | 0.00 | 0.00 | 70 | 1056.2 |
| 20260903172703 | 82 | 230 | 2.0 | 11.0 | 0.00 | 0.00 | 0.00 | 70 | 1056.2 |
| 20260903172632 | 82 | 208 | 2.0 | 11.0 | 0.00 | 0.00 | 0.00 | 70 | 1056.2 |
| 20260903172532 | 82 | 182 | 2.0 | 6.0 | 0.00 | 0.00 | 0.00 | 70 | 1056.1 |
| 20260903172432 | 82 | 170 | 3.0 | 11.0 | 0.00 | 0.00 | 0.00 | 70 | 1056.2 |
| 20260903172415 | 82 | 180 | 3.0 | 11.0 | 0.00 | 0.00 | 0.00 | 69 | 1056.2 |
| 20260903172404 | 82 | 182 | 3.0 | 13.0 | 0.00 | 0.00 | 0.00 | 69 | 1056.2 |
| 20260903172356 | 82 | 204 | 4.0 | 13.0 | 0.00 | 0.00 | 0.00 | 69 | 1056.2 |
| 20260903172033 | 82 | 205 | 4.0 | 13.0 | 0.00 | 0.00 | 0.00 | 70 | 1056.2 |
| 20260903172004 | 82 | 255 | 4.0 | 13.0 | 0.00 | 0.00 | 0.00 | 70 | 1056.2 |
| 20260903171956 | 82 | 255 | 5.0 | 13.0 | 0.00 | 0.00 | 0.00 | 70 | 1056.1 |
| 20260903171723 | 82 | 256 | 6.0 | 15.0 | 0.00 | 0.00 | 0.00 | 69 | 1056.2 |
| 20260903171710 | 82 | 255 | 6.0 | 15.0 | 0.00 | 0.00 | 0.00 | 69 | 1056.2 |
| 20260903171659 | 82 | 256 | 6.0 | 15.0 | 0.00 | 0.00 | 0.00 | 69 | 1056.3 |
| 20260903171651 | 82 | 226 | 6.0 | 15.0 | 0.00 | 0.00 | 0.00 | 69 | 1056.2 |
| 20260903171643 | 82 | 207 | 6.0 | 15.0 | 0.00 | 0.00 | 0.00 | 69 | 1056.2 |
| 20260903171633 | 82 | 140 | 6.0 | 15.0 | 0.00 | 0.00 | 0.00 | 69 | 1056.2 |
| 20260903171626 | 82 | 218 | 6.0 | 15.0 | 0.00 | 0.00 | 0.00 | 69 | 1056.2 |
| 20260903171618 | 82 | 156 | 6.0 | 15.0 | 0.00 | 0.00 | 0.00 | 69 | 1056.2 |
| 20260903171607 | 82 | 212 | 6.0 | 15.0 | 0.00 | 0.00 | 0.00 | 69 | 1056.2 |
| 20260903171556 | 82 | 201 | 7.0 | 15.0 | 0.00 | 0.00 | 0.00 | 69 | 1056.2 |
| 20260903171548 | 82 | 191 | 7.0 | 15.0 | 0.00 | 0.00 | 0.00 | 68 | 1056.2 |
| 20260903171101 | 83 | 179 | 7.0 | 15.0 | 0.00 | 0.00 | 0.00 | 68 | 1056.2 |
| 20260903170608 | 83 | 210 | 8.0 | 15.0 | 0.00 | 0.00 | 0.00 | 68 | 1056.3 |
| 20260903170556 | 83 | 228 | 7.0 | 15.0 | 0.00 | 0.00 | 0.00 | 68 | 1056.3 |
| 20260903170032 | 83 | 259 | 7.0 | 15.0 | 0.00 | 0.00 | 0.00 | 68 | 1056.3 |
| 20260903165920 | 83 | 140 | 7.0 | 14.0 | 0.00 | 0.00 | 0.00 | 67 | 1056.3 |
| 20260903165820 | 83 | 241 | 7.0 | 13.0 | 0.00 | 0.00 | 0.00 | 67 | 1056.3 |
| 20260903165720 | 83 | 187 | 8.0 | 14.0 | 0.00 | 0.00 | 0.00 | 67 | 1056.3 |
| 20260903165703 | 83 | 268 | 7.0 | 14.0 | 0.00 | 0.00 | 0.00 | 67 | 1056.4 |
| 20260903165620 | 83 | 214 | 7.0 | 14.0 | 0.00 | 0.00 | 0.00 | 67 | 1056.4 |
| 20260903165520 | 83 | 220 | 8.0 | 15.0 | 0.00 | 0.00 | 0.00 | 68 | 1056.3 |
| 20260903165452 | 83 | 228 | 8.0 | 15.0 | 0.00 | 0.00 | 0.00 | 68 | 1056.3 |
| 20260903165444 | 83 | 206 | 7.0 | 15.0 | 0.00 | 0.00 | 0.00 | 68 | 1056.3 |
| 20260903165202 | 82 | 253 | 7.0 | 15.0 | 0.00 | 0.00 | 0.00 | 68 | 1056.3 |
| 20260903165118 | 83 | 203 | 7.0 | 15.0 | 0.00 | 0.00 | 0.00 | 68 | 1056.3 |
| 20260903165026 | 83 | 220 | 7.0 | 15.0 | 0.00 | 0.00 | 0.00 | 68 | 1056.4 |
| 20260903165010 | 83 | 245 | 7.0 | 15.0 | 0.00 | 0.00 | 0.00 | 68 | 1056.3 |
| 20260903165000 | 83 | 173 | 7.0 | 15.0 | 0.00 | 0.00 | 0.00 | 67 | 1056.3 |
| 20260903164944 | 83 | 188 | 7.0 | 15.0 | 0.00 | 0.00 | 0.00 | 67 | 1056.4 |
| 20260903164719 | 83 | 203 | 7.0 | 15.0 | 0.00 | 0.00 | 0.00 | 67 | 1056.3 |
| 20260903164704 | 83 | 219 | 6.0 | 13.0 | 0.00 | 0.00 | 0.00 | 67 | 1056.4 |
| 20260903164655 | 83 | 169 | 6.0 | 13.0 | 0.00 | 0.00 | 0.00 | 67 | 1056.4 |
| 20260903164421 | 83 | 222 | 7.0 | 15.0 | 0.00 | 0.00 | 0.00 | 66 | 1056.3 |
| 20260903164118 | 83 | 176 | 6.0 | 15.0 | 0.00 | 0.00 | 0.00 | 66 | 1056.3 |
| 20260903164015 | 83 | 195 | 6.0 | 15.0 | 0.00 | 0.00 | 0.00 | 66 | 1056.3 |
| 20260903163915 | 83 | 156 | 6.0 | 15.0 | 0.00 | 0.00 | 0.00 | 66 | 1056.4 |
| 20260903163815 | 83 | 197 | 6.0 | 15.0 | 0.00 | 0.00 | 0.00 | 66 | 1056.3 |
| 20260903163716 | 83 | 222 | 6.0 | 15.0 | 0.00 | 0.00 | 0.00 | 66 | 1056.4 |
| 20260903163702 | 83 | 220 | 6.0 | 15.0 | 0.00 | 0.00 | 0.00 | 66 | 1056.3 |
| 20260903163616 | 83 | 181 | 6.0 | 15.0 | 0.00 | 0.00 | 0.00 | 66 | 1056.3 |
| 20260903163514 | 83 | 237 | 6.0 | 15.0 | 0.00 | 0.00 | 0.00 | 66 | 1056.4 |
| 20260903163416 | 83 | 197 | 5.0 | 15.0 | 0.00 | 0.00 | 0.00 | 65 | 1056.4 |
| 20260903163315 | 83 | 182 | 5.0 | 13.0 | 0.00 | 0.00 | 0.00 | 65 | 1056.3 |
| 20260903163226 | 83 | 174 | 5.0 | 13.0 | 0.00 | 0.00 | 0.00 | 66 | 1056.3 |
| 20260903163218 | 83 | 210 | 5.0 | 13.0 | 0.00 | 0.00 | 0.00 | 65 | 1056.3 |
| 20260903163203 | 83 | 209 | 6.0 | 13.0 | 0.00 | 0.00 | 0.00 | 66 | 1056.2 |
| 20260903163153 | 84 | 185 | 6.0 | 15.0 | 0.00 | 0.00 | 0.00 | 65 | 1056.3 |
| 20260903162920 | 84 | 268 | 6.0 | 15.0 | 0.00 | 0.00 | 0.00 | 66 | 1056.4 |
| 20260903162610 | 83 | 193 | 6.0 | 15.0 | 0.00 | 0.00 | 0.00 | 66 | 1056.3 |
| 20260903162510 | 83 | 301 | 6.0 | 15.0 | 0.00 | 0.00 | 0.00 | 66 | 1056.3 |
| 20260903162447 | 83 | 222 | 7.0 | 15.0 | 0.00 | 0.00 | 0.00 | 67 | 1056.3 |
| 20260903162439 | 83 | 210 | 7.0 | 15.0 | 0.00 | 0.00 | 0.00 | 66 | 1056.2 |
| 20260903162203 | 83 | 263 | 7.0 | 15.0 | 0.00 | 0.00 | 0.00 | 66 | 1056.3 |
| 20260903162146 | 83 | 211 | 7.0 | 15.0 | 0.00 | 0.00 | 0.00 | 67 | 1056.3 |
| 20260903162135 | 83 | 230 | 6.0 | 15.0 | 0.00 | 0.00 | 0.00 | 67 | 1056.3 |
| 20260903161811 | 83 | 214 | 6.0 | 16.0 | 0.00 | 0.00 | 0.00 | 67 | 1056.3 |
| 20260903161710 | 83 | 190 | 6.0 | 16.0 | 0.00 | 0.00 | 0.00 | 67 | 1056.3 |
| 20260903161702 | 83 | 188 | 7.0 | 16.0 | 0.00 | 0.00 | 0.00 | 67 | 1056.3 |
| 20260903161610 | 83 | 184 | 7.0 | 16.0 | 0.00 | 0.00 | 0.00 | 67 | 1056.3 |
| 20260903161513 | 83 | 179 | 6.0 | 16.0 | 0.00 | 0.00 | 0.00 | 67 | 1056.4 |
| 20260903161441 | 83 | 143 | 7.0 | 16.0 | 0.00 | 0.00 | 0.00 | 67 | 1056.4 |
| 20260903161433 | 83 | 183 | 7.0 | 16.0 | 0.00 | 0.00 | 0.00 | 67 | 1056.4 |
| 20260903161202 | 83 | 175 | 7.0 | 16.0 | 0.00 | 0.00 | 0.00 | 67 | 1056.3 |
| 20260903161106 | 83 | 175 | 7.0 | 16.0 | 0.00 | 0.00 | 0.00 | 67 | 1056.3 |
| 20260903161005 | 83 | 187 | 7.0 | 16.0 | 0.00 | 0.00 | 0.00 | 67 | 1056.4 |
| 20260903160902 | 83 | 183 | 7.0 | 16.0 | 0.00 | 0.00 | 0.00 | 67 | 1056.4 |
| 20260903160806 | 83 | 123 | 7.0 | 16.0 | 0.00 | 0.00 | 0.00 | 67 | 1056.4 |
| 20260903160712 | 83 | 224 | 7.0 | 16.0 | 0.00 | 0.00 | 0.00 | 67 | 1056.4 |
| 20260903160705 | 83 | 197 | 7.0 | 16.0 | 0.00 | 0.00 | 0.00 | 67 | 1056.4 |
| 20260903160607 | 83 | 104 | 7.0 | 16.0 | 0.00 | 0.00 | 0.00 | 67 | 1056.4 |
| 20260903160504 | 83 | 174 | 7.0 | 16.0 | 0.00 | 0.00 | 0.00 | 67 | 1056.4 |
| 20260903160445 | 83 | 174 | 7.0 | 16.0 | 0.00 | 0.00 | 0.00 | 67 | 1056.5 |
| 20260903160433 | 83 | 181 | 7.0 | 16.0 | 0.00 | 0.00 | 0.00 | 67 | 1056.5 |
| 20260903160203 | 83 | 141 | 6.0 | 16.0 | 0.00 | 0.00 | 0.00 | 67 | 1056.4 |
| 20260903160150 | 83 | 221 | 7.0 | 16.0 | 0.00 | 0.00 | 0.00 | 67 | 1056.4 |
| 20260903160139 | 83 | 154 | 6.0 | 16.0 | 0.00 | 0.00 | 0.00 | 68 | 1056.4 |
| 20260903160131 | 83 | 205 | 7.0 | 16.0 | 0.00 | 0.00 | 0.00 | 68 | 1056.4 |
| 20260903160122 | 83 | 166 | 7.0 | 16.0 | 0.00 | 0.00 | 0.00 | 68 | 1056.4 |
| 20260903160106 | 83 | 135 | 7.0 | 16.0 | 0.00 | 0.00 | 0.00 | 68 | 1056.4 |
| 20260903155845 | 83 | 209 | 7.0 | 16.0 | 0.00 | 0.00 | 0.00 | 68 | 1056.4 |
| 20260903155306 | 83 | 120 | 7.0 | 16.0 | 0.00 | 0.00 | 0.00 | 68 | 1056.5 |
| 20260903155213 | 83 | 233 | 8.0 | 16.0 | 0.00 | 0.00 | 0.00 | 68 | 1056.3 |
| 20260903155203 | 83 | 233 | 8.0 | 16.0 | 0.00 | 0.00 | 0.00 | 68 | 1056.3 |
| 20260903155100 | 83 | 225 | 7.0 | 17.0 | 0.00 | 0.00 | 0.00 | 68 | 1056.5 |
| 20260903155003 | 83 | 174 | 7.0 | 17.0 | 0.00 | 0.00 | 0.00 | 68 | 1056.4 |
| 20260903154900 | 83 | 186 | 7.0 | 17.0 | 0.00 | 0.00 | 0.00 | 68 | 1056.4 |
| 20260903154802 | 83 | 175 | 7.0 | 17.0 | 0.00 | 0.00 | 0.00 | 68 | 1056.4 |
| 20260903154711 | 83 | 212 | 7.0 | 17.0 | 0.00 | 0.00 | 0.00 | 68 | 1056.5 |
| 20260903154701 | 83 | 209 | 7.0 | 17.0 | 0.00 | 0.00 | 0.00 | 68 | 1056.5 |
| 20260903154603 | 83 | 137 | 7.0 | 17.0 | 0.00 | 0.00 | 0.00 | 68 | 1056.4 |
| 20260903154500 | 83 | 191 | 7.0 | 17.0 | 0.00 | 0.00 | 0.00 | 68 | 1056.4 |
| 20260903154400 | 83 | 177 | 7.0 | 17.0 | 0.00 | 0.00 | 0.00 | 67 | 1056.4 |
| 20260903154301 | 83 | 175 | 6.0 | 17.0 | 0.00 | 0.00 | 0.00 | 67 | 1056.4 |
| 20260903154212 | 83 | 172 | 6.0 | 17.0 | 0.00 | 0.00 | 0.00 | 68 | 1056.4 |
| 20260903154202 | 83 | 158 | 6.0 | 16.0 | 0.00 | 0.00 | 0.00 | 68 | 1056.4 |
| 20260903154101 | 83 | 164 | 6.0 | 16.0 | 0.00 | 0.00 | 0.00 | 67 | 1056.3 |
| 20260903154000 | 83 | 196 | 7.0 | 16.0 | 0.00 | 0.00 | 0.00 | 67 | 1056.4 |
| 20260903153900 | 83 | 179 | 7.0 | 16.0 | 0.00 | 0.00 | 0.00 | 67 | 1056.5 |
| 20260903153754 | 83 | 140 | 6.0 | 16.0 | 0.00 | 0.00 | 0.00 | 67 | 1056.4 |
| 20260903153706 | 83 | 170 | 6.0 | 16.0 | 0.00 | 0.00 | 0.00 | 66 | 1056.4 |
| 20260903153654 | 83 | 196 | 6.0 | 16.0 | 0.00 | 0.00 | 0.00 | 66 | 1056.4 |
| 20260903153631 | 83 | 137 | 6.0 | 16.0 | 0.00 | 0.00 | 0.00 | 66 | 1056.4 |
| 20260903153620 | 83 | 56 | 7.0 | 16.0 | 0.00 | 0.00 | 0.00 | 66 | 1056.3 |
| 20260903153336 | 83 | 137 | 7.0 | 17.0 | 0.00 | 0.00 | 0.00 | 66 | 1056.4 |
| 20260903153326 | 83 | 135 | 7.0 | 17.0 | 0.00 | 0.00 | 0.00 | 66 | 1056.4 |
| 20260903153320 | 83 | 131 | 7.0 | 17.0 | 0.00 | 0.00 | 0.00 | 66 | 1056.4 |
| 20260903153307 | 84 | 168 | 7.0 | 17.0 | 0.00 | 0.00 | 0.00 | 66 | 1056.4 |
| 20260903153259 | 84 | 158 | 7.0 | 17.0 | 0.00 | 0.00 | 0.00 | 66 | 1056.4 |
| 20260903153247 | 84 | 172 | 7.0 | 17.0 | 0.00 | 0.00 | 0.00 | 66 | 1056.4 |
| 20260903153238 | 84 | 184 | 7.0 | 17.0 | 0.00 | 0.00 | 0.00 | 66 | 1056.4 |
| 20260903152440 | 84 | 200 | 7.0 | 17.0 | 0.00 | 0.00 | 0.00 | 65 | 1056.5 |
| 20260903152338 | 84 | 104 | 7.0 | 17.0 | 0.00 | 0.00 | 0.00 | 65 | 1056.4 |
| 20260903152232 | 84 | 145 | 6.0 | 16.0 | 0.00 | 0.00 | 0.00 | 65 | 1056.5 |
| 20260903152201 | 84 | 162 | 6.0 | 16.0 | 0.00 | 0.00 | 0.00 | 64 | 1056.7 |
| 20260903152132 | 85 | 127 | 6.0 | 15.0 | 0.00 | 0.00 | 0.00 | 64 | 1056.7 |
| 20260903152032 | 85 | 151 | 6.0 | 15.0 | 0.00 | 0.00 | 0.00 | 64 | 1056.5 |
| 20260903151949 | 85 | 142 | 7.0 | 15.0 | 0.00 | 0.00 | 0.00 | 65 | 1056.4 |
| 20260903151937 | 85 | 174 | 6.0 | 15.0 | 0.00 | 0.00 | 0.00 | 65 | 1056.5 |
| 20260903151920 | 85 | 241 | 6.0 | 15.0 | 0.00 | 0.00 | 0.00 | 65 | 1056.4 |
| 20260903151632 | 85 | 221 | 6.0 | 15.0 | 0.00 | 0.00 | 0.00 | 65 | 1056.6 |
| 20260903151533 | 85 | 354 | 7.0 | 15.0 | 0.00 | 0.00 | 0.00 | 65 | 1056.5 |
| 20260903151432 | 85 | 249 | 7.0 | 13.0 | 0.00 | 0.00 | 0.00 | 65 | 1056.5 |
| 20260903151333 | 85 | 221 | 7.0 | 13.0 | 0.00 | 0.00 | 0.00 | 65 | 1056.5 |
| 20260903151232 | 85 | 161 | 8.0 | 13.0 | 0.00 | 0.00 | 0.00 | 65 | 1056.4 |
| 20260903151201 | 85 | 137 | 8.0 | 14.0 | 0.00 | 0.00 | 0.00 | 65 | 1056.5 |
| 20260903151132 | 85 | 143 | 8.0 | 14.0 | 0.00 | 0.00 | 0.00 | 65 | 1056.5 |
| 20260903151032 | 85 | 214 | 7.0 | 14.0 | 0.00 | 0.00 | 0.00 | 65 | 1056.5 |
| 20260903150932 | 85 | 185 | 7.0 | 14.0 | 0.00 | 0.00 | 0.00 | 64 | 1056.5 |
| 20260903150849 | 85 | 245 | 7.0 | 14.0 | 0.00 | 0.00 | 0.00 | 64 | 1056.5 |
| 20260903150840 | 85 | 193 | 7.0 | 14.0 | 0.00 | 0.00 | 0.00 | 64 | 1056.5 |
| 20260903150831 | 85 | 193 | 7.0 | 14.0 | 0.00 | 0.00 | 0.00 | 64 | 1056.5 |
| 20260903150820 | 85 | 159 | 7.0 | 14.0 | 0.00 | 0.00 | 0.00 | 64 | 1056.5 |
| 20260903150553 | 85 | 157 | 6.0 | 14.0 | 0.00 | 0.00 | 0.00 | 63 | 1056.6 |
| 20260903150231 | 85 | 192 | 6.0 | 14.0 | 0.00 | 0.00 | 0.00 | 64 | 1056.5 |
| 20260903150201 | 85 | 216 | 6.0 | 13.0 | 0.00 | 0.00 | 0.00 | 64 | 1056.5 |
| 20260903150128 | 85 | 195 | 6.0 | 13.0 | 0.00 | 0.00 | 0.00 | 64 | 1056.5 |
| 20260903150026 | 85 | 201 | 6.0 | 13.0 | 0.00 | 0.00 | 0.00 | 64 | 1056.4 |
| 20260903145924 | 85 | 212 | 5.0 | 13.0 | 0.00 | 0.00 | 0.00 | 64 | 1056.5 |
| 20260903145824 | 85 | 170 | 6.0 | 13.0 | 0.00 | 0.00 | 0.00 | 64 | 1056.5 |
| 20260903145727 | 85 | 249 | 6.0 | 17.0 | 0.00 | 0.00 | 0.00 | 64 | 1056.5 |
| 20260903145700 | 85 | 208 | 7.0 | 17.0 | 0.00 | 0.00 | 0.00 | 64 | 1056.5 |
| 20260903145624 | 85 | 176 | 7.0 | 17.0 | 0.00 | 0.00 | 0.00 | 64 | 1056.5 |
| 20260903145523 | 85 | 225 | 7.0 | 17.0 | 0.00 | 0.00 | 0.00 | 64 | 1056.4 |
| 20260903145450 | 85 | 158 | 7.0 | 17.0 | 0.00 | 0.00 | 0.00 | 64 | 1056.5 |
| 20260903145442 | 85 | 191 | 7.0 | 17.0 | 0.00 | 0.00 | 0.00 | 64 | 1056.5 |
| 20260903145159 | 85 | 186 | 6.0 | 17.0 | 0.00 | 0.00 | 0.00 | 64 | 1056.5 |
| 20260903145121 | 85 | 231 | 6.0 | 17.0 | 0.00 | 0.00 | 0.00 | 64 | 1056.5 |
| 20260903145022 | 85 | 260 | 6.0 | 17.0 | 0.00 | 0.00 | 0.00 | 64 | 1056.6 |
| 20260903144920 | 85 | 204 | 6.0 | 17.0 | 0.00 | 0.00 | 0.00 | 63 | 1056.5 |
| 20260903144820 | 85 | 200 | 7.0 | 17.0 | 0.00 | 0.00 | 0.00 | 63 | 1056.6 |
| 20260903144721 | 85 | 208 | 7.0 | 17.0 | 0.00 | 0.00 | 0.00 | 62 | 1056.6 |
| 20260903144701 | 85 | 192 | 7.0 | 17.0 | 0.00 | 0.00 | 0.00 | 62 | 1056.5 |
| 20260903144620 | 85 | 272 | 7.0 | 17.0 | 0.00 | 0.00 | 0.00 | 62 | 1056.5 |
| 20260903144520 | 85 | 225 | 7.0 | 17.0 | 0.00 | 0.00 | 0.00 | 62 | 1056.6 |
| 20260903144419 | 85 | 198 | 7.0 | 17.0 | 0.00 | 0.00 | 0.00 | 62 | 1056.5 |
| 20260903144312 | 85 | 145 | 7.0 | 17.0 | 0.00 | 0.00 | 0.00 | 62 | 1056.5 |
| 20260903144241 | 85 | 235 | 8.0 | 17.0 | 0.00 | 0.00 | 0.00 | 62 | 1056.6 |
| 20260903144232 | 85 | 235 | 8.0 | 17.0 | 0.00 | 0.00 | 0.00 | 62 | 1056.6 |
| 20260903144225 | 85 | 148 | 8.0 | 17.0 | 0.00 | 0.00 | 0.00 | 62 | 1056.6 |
| 20260903144215 | 85 | 173 | 9.0 | 17.0 | 0.00 | 0.00 | 0.00 | 62 | 1056.6 |
| 20260903144206 | 85 | 165 | 8.0 | 17.0 | 0.00 | 0.00 | 0.00 | 62 | 1056.6 |
| 20260903144158 | 86 | 210 | 8.0 | 17.0 | 0.00 | 0.00 | 0.00 | 61 | 1056.7 |
| 20260903144146 | 86 | 159 | 8.0 | 17.0 | 0.00 | 0.00 | 0.00 | 61 | 1056.7 |
| 20260903143920 | 86 | 166 | 7.0 | 17.0 | 0.00 | 0.00 | 0.00 | 61 | 1056.7 |
| 20260903143909 | 86 | 179 | 7.0 | 17.0 | 0.00 | 0.00 | 0.00 | 61 | 1056.7 |
| 20260903143900 | 86 | 193 | 7.0 | 17.0 | 0.00 | 0.00 | 0.00 | 60 | 1056.6 |
| 20260903143111 | 87 | 172 | 7.0 | 15.0 | 0.00 | 0.00 | 0.00 | 59 | 1056.6 |
| 20260903143010 | 87 | 135 | 6.0 | 15.0 | 0.00 | 0.00 | 0.00 | 60 | 1056.5 |
| 20260903142911 | 87 | 256 | 6.0 | 15.0 | 0.00 | 0.00 | 0.00 | 59 | 1056.6 |
| 20260903142811 | 87 | 237 | 6.0 | 15.0 | 0.00 | 0.00 | 0.00 | 59 | 1056.6 |
| 20260903142712 | 87 | 224 | 6.0 | 15.0 | 0.00 | 0.00 | 0.00 | 59 | 1056.6 |
| 20260903142656 | 87 | 195 | 6.0 | 15.0 | 0.00 | 0.00 | 0.00 | 59 | 1056.6 |
| 20260903142610 | 87 | 270 | 6.0 | 15.0 | 0.00 | 0.00 | 0.00 | 59 | 1056.6 |
| 20260903142509 | 87 | 172 | 7.0 | 15.0 | 0.00 | 0.00 | 0.00 | 59 | 1056.6 |
| 20260903142409 | 87 | 225 | 7.0 | 15.0 | 0.00 | 0.00 | 0.00 | 58 | 1056.7 |
| 20260903142309 | 87 | 216 | 7.0 | 15.0 | 0.00 | 0.00 | 0.00 | 57 | 1056.6 |
| 20260903142209 | 87 | 315 | 7.0 | 15.0 | 0.00 | 0.00 | 0.00 | 57 | 1056.7 |
| 20260903142155 | 87 | 307 | 7.0 | 15.0 | 0.00 | 0.00 | 0.00 | 57 | 1056.7 |
| 20260903142109 | 87 | 185 | 7.0 | 17.0 | 0.00 | 0.00 | 0.00 | 58 | 1056.6 |
| 20260903142009 | 87 | 209 | 7.0 | 17.0 | 0.00 | 0.00 | 0.00 | 58 | 1056.6 |
| 20260903141909 | 87 | 210 | 8.0 | 17.0 | 0.00 | 0.00 | 0.00 | 58 | 1056.6 |
| 20260903141854 | 87 | 235 | 8.0 | 17.0 | 0.00 | 0.00 | 0.00 | 57 | 1056.6 |
| 20260903141839 | 87 | 243 | 9.0 | 17.0 | 0.00 | 0.00 | 0.00 | 56 | 1056.6 |
| 20260903141833 | 87 | 231 | 9.0 | 17.0 | 0.00 | 0.00 | 0.00 | 56 | 1056.6 |
| 20260903141509 | 87 | 192 | 8.0 | 17.0 | 0.00 | 0.00 | 0.00 | 56 | 1056.8 |
| 20260903141404 | 87 | 168 | 8.0 | 17.0 | 0.00 | 0.00 | 0.00 | 55 | 1056.6 |
| 20260903141340 | 88 | 273 | 8.0 | 17.0 | 0.00 | 0.00 | 0.00 | 55 | 1056.6 |
| 20260903141330 | 88 | 211 | 8.0 | 17.0 | 0.00 | 0.00 | 0.00 | 55 | 1056.6 |
| 20260903141323 | 88 | 187 | 8.0 | 17.0 | 0.00 | 0.00 | 0.00 | 55 | 1056.6 |
| 20260903141004 | 88 | 191 | 7.0 | 17.0 | 0.00 | 0.00 | 0.00 | 54 | 1056.7 |
| 20260903140904 | 88 | 200 | 6.0 | 17.0 | 0.00 | 0.00 | 0.00 | 54 | 1056.7 |
| 20260903140806 | 88 | 222 | 6.0 | 17.0 | 0.00 | 0.00 | 0.00 | 54 | 1056.6 |
| 20260903140704 | 88 | 212 | 6.0 | 14.0 | 0.00 | 0.00 | 0.00 | 54 | 1056.7 |
| 20260903140639 | 88 | 204 | 6.0 | 14.0 | 0.00 | 0.00 | 0.00 | 54 | 1056.7 |
| 20260903140604 | 88 | 252 | 6.0 | 14.0 | 0.00 | 0.00 | 0.00 | 54 | 1056.7 |
| 20260903140539 | 88 | 259 | 6.0 | 14.0 | 0.00 | 0.00 | 0.00 | 53 | 1056.6 |
| 20260903140531 | 88 | 217 | 7.0 | 14.0 | 0.00 | 0.00 | 0.00 | 53 | 1056.6 |
| 20260903140205 | 88 | 203 | 7.0 | 14.0 | 0.00 | 0.00 | 0.00 | 53 | 1056.6 |
| 20260903140135 | 88 | 237 | 7.0 | 14.0 | 0.00 | 0.00 | 0.00 | 53 | 1056.6 |
| 20260903140107 | 88 | 204 | 7.0 | 14.0 | 0.00 | 0.00 | 0.00 | 53 | 1056.6 |
| 20260903140004 | 88 | 201 | 7.0 | 14.0 | 0.00 | 0.00 | 0.00 | 52 | 1056.6 |
| 20260903135904 | 88 | 234 | 7.0 | 14.0 | 0.00 | 0.00 | 0.00 | 51 | 1056.7 |
| 20260903135804 | 88 | 224 | 7.0 | 14.0 | 0.00 | 0.00 | 0.00 | 51 | 1056.7 |
| 20260903135705 | 88 | 188 | 7.0 | 14.0 | 0.00 | 0.00 | 0.00 | 51 | 1056.8 |
| 20260903135635 | 88 | 216 | 7.0 | 14.0 | 0.00 | 0.00 | 0.00 | 51 | 1056.8 |
| 20260903135606 | 88 | 194 | 7.0 | 14.0 | 0.00 | 0.00 | 0.00 | 51 | 1056.7 |
| 20260903135504 | 88 | 264 | 8.0 | 16.0 | 0.00 | 0.00 | 0.00 | 51 | 1056.7 |
| 20260903135403 | 88 | 162 | 8.0 | 16.0 | 0.00 | 0.00 | 0.00 | 50 | 1056.8 |
| 20260903135306 | 88 | 200 | 8.0 | 16.0 | 0.00 | 0.00 | 0.00 | 49 | 1056.6 |
| 20260903135203 | 88 | 230 | 8.0 | 16.0 | 0.00 | 0.00 | 0.00 | 49 | 1056.6 |
| 20260903135135 | 88 | 241 | 8.0 | 16.0 | 0.00 | 0.00 | 0.00 | 49 | 1056.6 |
| 20260903135103 | 88 | 214 | 8.0 | 16.0 | 0.00 | 0.00 | 0.00 | 49 | 1056.7 |
| 20260903135002 | 89 | 232 | 8.0 | 16.0 | 0.00 | 0.00 | 0.00 | 48 | 1056.6 |
| 20260903134941 | 89 | 222 | 8.0 | 16.0 | 0.00 | 0.00 | 0.00 | 48 | 1056.6 |
| 20260903134929 | 89 | 227 | 7.0 | 16.0 | 0.00 | 0.00 | 0.00 | 49 | 1056.8 |
| 20260903134639 | 89 | 172 | 7.0 | 16.0 | 0.00 | 0.00 | 0.00 | 49 | 1056.8 |
| 20260903134632 | 89 | 173 | 7.0 | 16.0 | 0.00 | 0.00 | 0.00 | 48 | 1056.8 |
| 20260903134621 | 89 | 282 | 7.0 | 15.0 | 0.00 | 0.00 | 0.00 | 48 | 1056.9 |
| 20260903134300 | 89 | 222 | 6.0 | 14.0 | 0.00 | 0.00 | 0.00 | 48 | 1056.8 |
| 20260903134200 | 89 | 235 | 6.0 | 14.0 | 0.00 | 0.00 | 0.00 | 49 | 1056.8 |
| 20260903134136 | 89 | 218 | 6.0 | 14.0 | 0.00 | 0.00 | 0.00 | 49 | 1056.8 |
| 20260903134100 | 89 | 251 | 6.0 | 14.0 | 0.00 | 0.00 | 0.00 | 49 | 1056.8 |
| 20260903134000 | 89 | 226 | 7.0 | 14.0 | 0.00 | 0.00 | 0.00 | 49 | 1056.8 |
| 20260903133923 | 89 | 206 | 7.0 | 14.0 | 0.00 | 0.00 | 0.00 | 48 | 1056.9 |
| 20260903133914 | 89 | 205 | 7.0 | 14.0 | 0.00 | 0.00 | 0.00 | 47 | 1056.8 |
| 20260903133852 | 89 | 206 | 7.0 | 14.0 | 0.00 | 0.00 | 0.00 | 46 | 1056.9 |
| 20260903133625 | 89 | 194 | 7.0 | 14.0 | 0.00 | 0.00 | 0.00 | 47 | 1056.9 |
| 20260903133258 | 89 | 155 | 6.0 | 14.0 | 0.00 | 0.00 | 0.00 | 46 | 1056.9 |
| 20260903133158 | 89 | 209 | 6.0 | 14.0 | 0.00 | 0.00 | 0.00 | 45 | 1056.9 |
| 20260903133135 | 89 | 273 | 6.0 | 14.0 | 0.00 | 0.00 | 0.00 | 45 | 1056.9 |
| 20260903133058 | 89 | 258 | 6.0 | 14.0 | 0.00 | 0.00 | 0.00 | 46 | 1056.9 |
| 20260903133032 | 89 | 260 | 6.0 | 14.0 | 0.00 | 0.00 | 0.00 | 46 | 1057.0 |
| 20260903133024 | 89 | 211 | 6.0 | 14.0 | 0.00 | 0.00 | 0.00 | 45 | 1056.9 |
| 20260903132658 | 89 | 208 | 6.0 | 13.0 | 0.00 | 0.00 | 0.00 | 47 | 1057.0 |
| 20260903132635 | 89 | 238 | 6.0 | 13.0 | 0.00 | 0.00 | 0.00 | 47 | 1057.0 |
| 20260903132556 | 89 | 243 | 5.0 | 13.0 | 0.00 | 0.00 | 0.00 | 47 | 1056.9 |
| 20260903132456 | 89 | 196 | 5.0 | 13.0 | 0.00 | 0.00 | 0.00 | 47 | 1056.9 |
| 20260903132357 | 89 | 261 | 5.0 | 13.0 | 0.00 | 0.00 | 0.00 | 47 | 1056.9 |
| 20260903132318 | 89 | 206 | 6.0 | 13.0 | 0.00 | 0.00 | 0.00 | 47 | 1057.0 |
| 20260903132307 | 89 | 220 | 6.0 | 13.0 | 0.00 | 0.00 | 0.00 | 47 | 1057.0 |
| 20260903132300 | 89 | 231 | 6.0 | 13.0 | 0.00 | 0.00 | 0.00 | 47 | 1057.0 |
| 20260903132248 | 89 | 142 | 5.0 | 13.0 | 0.00 | 0.00 | 0.00 | 47 | 1057.1 |
| 20260903132236 | 89 | 188 | 5.0 | 12.0 | 0.00 | 0.00 | 0.00 | 47 | 1056.9 |
| 20260903131738 | 89 | 138 | 5.0 | 12.0 | 0.00 | 0.00 | 0.00 | 47 | 1057.0 |
| 20260903131730 | 89 | 129 | 5.0 | 12.0 | 0.00 | 0.00 | 0.00 | 47 | 1057.0 |
| 20260903131721 | 89 | 227 | 6.0 | 12.0 | 0.00 | 0.00 | 0.00 | 48 | 1057.0 |
| 20260903131348 | 89 | 265 | 5.0 | 14.0 | 0.00 | 0.00 | 0.00 | 47 | 1057.0 |
| 20260903131248 | 89 | 199 | 5.0 | 14.0 | 0.00 | 0.00 | 0.00 | 48 | 1057.0 |
| 20260903131224 | 89 | 167 | 5.0 | 14.0 | 0.00 | 0.00 | 0.00 | 47 | 1056.9 |
| 20260903131216 | 89 | 126 | 5.0 | 14.0 | 0.00 | 0.00 | 0.00 | 47 | 1056.9 |
| 20260903131208 | 89 | 139 | 5.0 | 14.0 | 0.00 | 0.00 | 0.00 | 47 | 1056.9 |
| 20260903130931 | 89 | 118 | 5.0 | 14.0 | 0.00 | 0.00 | 0.00 | 46 | 1056.9 |
| 20260903130923 | 89 | 135 | 5.0 | 14.0 | 0.00 | 0.00 | 0.00 | 46 | 1056.9 |
| 20260903130912 | 89 | 229 | 5.0 | 14.0 | 0.00 | 0.00 | 0.00 | 46 | 1057.0 |
| 20260903130903 | 89 | 172 | 5.0 | 14.0 | 0.00 | 0.00 | 0.00 | 46 | 1057.0 |
| 20260903130855 | 89 | 183 | 5.0 | 14.0 | 0.00 | 0.00 | 0.00 | 47 | 1057.0 |
| 20260903130400 | 89 | 256 | 5.0 | 13.0 | 0.00 | 0.00 | 0.00 | 46 | 1057.0 |
| 20260903130345 | 89 | 197 | 5.0 | 13.0 | 0.00 | 0.00 | 0.00 | 47 | 1057.0 |
| 20260903130337 | 89 | 188 | 5.0 | 13.0 | 0.00 | 0.00 | 0.00 | 47 | 1057.0 |
| 20260903130106 | 89 | 135 | 5.0 | 13.0 | 0.00 | 0.00 | 0.00 | 46 | 1057.0 |
| 20260903130053 | 89 | 70 | 5.0 | 13.0 | 0.00 | 0.00 | 0.00 | 46 | 1056.9 |
| 20260903130041 | 89 | 214 | 5.0 | 13.0 | 0.00 | 0.00 | 0.00 | 46 | 1056.9 |
| 20260903130030 | 89 | 174 | 5.0 | 13.0 | 0.00 | 0.00 | 0.00 | 46 | 1056.9 |
| 20260903130024 | 89 | 186 | 5.0 | 13.0 | 0.00 | 0.00 | 0.00 | 46 | 1056.9 |
| 20260903125752 | 89 | 208 | 5.0 | 14.0 | 0.00 | 0.00 | 0.00 | 46 | 1056.9 |
| 20260903125523 | 89 | 100 | 5.0 | 14.0 | 0.00 | 0.00 | 0.00 | 47 | 1056.9 |
| 20260903125512 | 88 | 222 | 5.0 | 14.0 | 0.00 | 0.00 | 0.00 | 47 | 1056.9 |
| 20260903124936 | 88 | 239 | 6.0 | 14.0 | 0.00 | 0.00 | 0.00 | 47 | 1056.9 |
| 20260903124836 | 88 | 247 | 6.0 | 14.0 | 0.00 | 0.00 | 0.00 | 47 | 1057.0 |
| 20260903124736 | 88 | 227 | 7.0 | 19.0 | 0.00 | 0.00 | 0.00 | 47 | 1056.9 |
| 20260903124716 | 88 | 167 | 6.0 | 19.0 | 0.00 | 0.00 | 0.00 | 47 | 1056.9 |
| 20260903124709 | 88 | 188 | 6.0 | 19.0 | 0.00 | 0.00 | 0.00 | 47 | 1056.9 |
| 20260903124700 | 88 | 168 | 6.0 | 19.0 | 0.00 | 0.00 | 0.00 | 47 | 1056.9 |
| 20260903124428 | 89 | 181 | 6.0 | 19.0 | 0.00 | 0.00 | 0.00 | 46 | 1056.9 |
| 20260903124420 | 89 | 149 | 6.0 | 19.0 | 0.00 | 0.00 | 0.00 | 46 | 1057.1 |
| 20260903124404 | 89 | 157 | 6.0 | 19.0 | 0.00 | 0.00 | 0.00 | 46 | 1057.0 |
| 20260903124352 | 89 | 183 | 5.0 | 19.0 | 0.00 | 0.00 | 0.00 | 47 | 1057.0 |
| 20260903123903 | 89 | 107 | 4.0 | 10.0 | 0.00 | 0.00 | 0.00 | 46 | 1057.0 |
| 20260903123847 | 89 | 157 | 5.0 | 10.0 | 0.00 | 0.00 | 0.00 | 46 | 1056.9 |
| 20260903123533 | 89 | 193 | 5.0 | 10.0 | 0.00 | 0.00 | 0.00 | 45 | 1057.0 |
| 20260903123432 | 89 | 141 | 5.0 | 10.0 | 0.00 | 0.00 | 0.00 | 45 | 1057.1 |
| 20260903123415 | 89 | 16 | 5.0 | 10.0 | 0.00 | 0.00 | 0.00 | 45 | 1056.9 |
| 20260903123406 | 89 | 168 | 4.0 | 10.0 | 0.00 | 0.00 | 0.00 | 46 | 1057.0 |
| 20260903123345 | 89 | 243 | 5.0 | 10.0 | 0.00 | 0.00 | 0.00 | 46 | 1057.0 |
| 20260903123032 | 89 | 222 | 5.0 | 11.0 | 0.00 | 0.00 | 0.00 | 45 | 1057.0 |
| 20260903122932 | 89 | 168 | 5.0 | 11.0 | 0.00 | 0.00 | 0.00 | 45 | 1057.0 |
| 20260903122833 | 89 | 142 | 5.0 | 11.0 | 0.00 | 0.00 | 0.00 | 45 | 1057.0 |
| 20260903122733 | 89 | 173 | 5.0 | 11.0 | 0.00 | 0.00 | 0.00 | 45 | 1057.0 |
| 20260903122637 | 89 | 213 | 5.0 | 11.0 | 0.00 | 0.00 | 0.00 | 45 | 1056.9 |
| 20260903122532 | 89 | 218 | 4.0 | 11.0 | 0.00 | 0.00 | 0.00 | 45 | 1056.9 |
| 20260903122455 | 89 | 75 | 5.0 | 11.0 | 0.00 | 0.00 | 0.00 | 45 | 1056.9 |
| 20260903122443 | 89 | 69 | 5.0 | 12.0 | 0.00 | 0.00 | 0.00 | 45 | 1056.9 |
| 20260903122431 | 89 | 222 | 5.0 | 12.0 | 0.00 | 0.00 | 0.00 | 44 | 1057.0 |
| 20260903122419 | 89 | 226 | 5.0 | 12.0 | 0.00 | 0.00 | 0.00 | 45 | 1056.9 |
| 20260903122150 | 89 | 185 | 5.0 | 12.0 | 0.00 | 0.00 | 0.00 | 45 | 1057.0 |
| 20260903122138 | 89 | 106 | 5.0 | 12.0 | 0.00 | 0.00 | 0.00 | 44 | 1057.0 |
| 20260903121910 | 89 | 119 | 5.0 | 12.0 | 0.00 | 0.00 | 0.00 | 45 | 1057.1 |
| 20260903121849 | 89 | 300 | 5.0 | 12.0 | 0.00 | 0.00 | 0.00 | 45 | 1057.1 |
| 20260903121532 | 89 | 228 | 5.0 | 12.0 | 0.00 | 0.00 | 0.00 | 44 | 1057.1 |
| 20260903121432 | 89 | 240 | 5.0 | 12.0 | 0.00 | 0.00 | 0.00 | 44 | 1057.1 |
| 20260903121407 | 89 | 189 | 5.0 | 11.0 | 0.00 | 0.00 | 0.00 | 44 | 1057.1 |
| 20260903121359 | 89 | 224 | 5.0 | 11.0 | 0.00 | 0.00 | 0.00 | 45 | 1057.1 |
| 20260903121347 | 89 | 170 | 4.0 | 11.0 | 0.00 | 0.00 | 0.00 | 44 | 1057.1 |
| 20260903121032 | 89 | 112 | 4.0 | 11.0 | 0.00 | 0.00 | 0.00 | 44 | 1057.0 |
| 20260903120928 | 89 | 234 | 4.0 | 11.0 | 0.00 | 0.00 | 0.00 | 43 | 1057.1 |
| 20260903120828 | 89 | 224 | 4.0 | 11.0 | 0.00 | 0.00 | 0.00 | 44 | 1057.1 |
| 20260903120728 | 89 | 217 | 4.0 | 10.0 | 0.00 | 0.00 | 0.00 | 44 | 1057.1 |
| 20260903120639 | 90 | 138 | 4.0 | 10.0 | 0.00 | 0.00 | 0.00 | 44 | 1057.0 |
| 20260903120628 | 90 | 134 | 4.0 | 10.0 | 0.00 | 0.00 | 0.00 | 44 | 1057.0 |
| 20260903120528 | 90 | 111 | 4.0 | 10.0 | 0.00 | 0.00 | 0.00 | 44 | 1057.1 |
| 20260903120428 | 90 | 176 | 4.0 | 10.0 | 0.00 | 0.00 | 0.00 | 44 | 1057.2 |
| 20260903120328 | 89 | 179 | 5.0 | 10.0 | 0.00 | 0.00 | 0.00 | 44 | 1057.1 |
| 20260903120228 | 89 | 158 | 5.0 | 10.0 | 0.00 | 0.00 | 0.00 | 44 | 1057.1 |
| 20260903120140 | 89 | 206 | 6.0 | 10.0 | 0.00 | 0.00 | 0.00 | 44 | 1057.1 |
| 20260903120129 | 89 | 200 | 6.0 | 10.0 | 0.00 | 0.00 | 0.00 | 44 | 1057.1 |
| 20260903120029 | 89 | 215 | 6.0 | 11.0 | 0.00 | 0.00 | 0.00 | 44 | 1057.1 |
| 20260903115928 | 89 | 212 | 6.0 | 11.0 | 0.00 | 0.00 | 0.00 | 44 | 1057.1 |
| 20260903115828 | 89 | 161 | 6.0 | 12.0 | 0.00 | 0.00 | 0.00 | 45 | 1057.1 |
| 20260903115727 | 89 | 115 | 7.0 | 13.0 | 0.00 | 0.00 | 0.00 | 43 | 1057.1 |
| 20260903115630 | 89 | 161 | 6.0 | 13.0 | 0.00 | 0.00 | 0.00 | 44 | 1057.1 |
| 20260903115528 | 89 | 188 | 6.0 | 13.0 | 0.00 | 0.00 | 0.00 | 44 | 1057.1 |
| 20260903115429 | 89 | 206 | 6.0 | 13.0 | 0.00 | 0.00 | 0.00 | 44 | 1057.1 |
| 20260903115328 | 89 | 236 | 5.0 | 13.0 | 0.00 | 0.00 | 0.00 | 43 | 1057.1 |
| 20260903115228 | 89 | 202 | 5.0 | 13.0 | 0.00 | 0.00 | 0.00 | 44 | 1057.2 |
| 20260903115139 | 89 | 233 | 5.0 | 13.0 | 0.00 | 0.00 | 0.00 | 44 | 1057.1 |
| 20260903115129 | 89 | 225 | 5.0 | 13.0 | 0.00 | 0.00 | 0.00 | 44 | 1057.1 |
| 20260903115030 | 89 | 197 | 4.0 | 13.0 | 0.00 | 0.00 | 0.00 | 43 | 1057.2 |
| 20260903115001 | 89 | 224 | 4.0 | 13.0 | 0.00 | 0.00 | 0.00 | 44 | 1057.2 |
| 20260903114953 | 89 | 226 | 4.0 | 13.0 | 0.00 | 0.00 | 0.00 | 43 | 1057.2 |
| 20260903114638 | 89 | 144 | 4.0 | 12.0 | 0.00 | 0.00 | 0.00 | 44 | 1057.2 |
| 20260903114628 | 89 | 152 | 4.0 | 12.0 | 0.00 | 0.00 | 0.00 | 44 | 1057.2 |
| 20260903114528 | 89 | 176 | 4.0 | 12.0 | 0.00 | 0.00 | 0.00 | 43 | 1057.1 |
| 20260903114428 | 89 | 185 | 4.0 | 12.0 | 0.00 | 0.00 | 0.00 | 44 | 1057.2 |
| 20260903114328 | 89 | 207 | 5.0 | 12.0 | 0.00 | 0.00 | 0.00 | 44 | 1057.1 |
| 20260903114228 | 89 | 220 | 5.0 | 12.0 | 0.00 | 0.00 | 0.00 | 43 | 1057.2 |
| 20260903114144 | 89 | 212 | 5.0 | 12.0 | 0.00 | 0.00 | 0.00 | 44 | 1057.2 |
| 20260903114133 | 89 | 243 | 5.0 | 12.0 | 0.00 | 0.00 | 0.00 | 44 | 1057.2 |
| 20260903114125 | 89 | 218 | 5.0 | 12.0 | 0.00 | 0.00 | 0.00 | 44 | 1057.2 |
| 20260903114116 | 89 | 197 | 5.0 | 12.0 | 0.00 | 0.00 | 0.00 | 44 | 1057.2 |
| 20260903113622 | 89 | 162 | 5.0 | 10.0 | 0.00 | 0.00 | 0.00 | 44 | 1057.2 |
| 20260903113522 | 89 | 214 | 5.0 | 10.0 | 0.00 | 0.00 | 0.00 | 43 | 1057.3 |
| 20260903113425 | 89 | 127 | 5.0 | 10.0 | 0.00 | 0.00 | 0.00 | 42 | 1057.3 |
| 20260903113322 | 89 | 100 | 4.0 | 10.0 | 0.00 | 0.00 | 0.00 | 44 | 1057.2 |
| 20260903113223 | 89 | 87 | 4.0 | 10.0 | 0.00 | 0.00 | 0.00 | 43 | 1057.2 |
| 20260903113130 | 89 | 89 | 4.0 | 10.0 | 0.00 | 0.00 | 0.00 | 42 | 1057.2 |
| 20260903113121 | 89 | 120 | 4.0 | 10.0 | 0.00 | 0.00 | 0.00 | 42 | 1057.2 |
| 20260903113021 | 90 | 107 | 4.0 | 10.0 | 0.00 | 0.00 | 0.00 | 43 | 1057.2 |
| 20260903112918 | 90 | 129 | 4.0 | 9.0 | 0.00 | 0.00 | 0.00 | 42 | 1057.2 |
| 20260903112818 | 90 | 118 | 4.0 | 9.0 | 0.00 | 0.00 | 0.00 | 42 | 1057.3 |
| 20260903112716 | 90 | 105 | 4.0 | 9.0 | 0.00 | 0.00 | 0.00 | 43 | 1057.3 |
| 20260903112631 | 90 | 103 | 4.0 | 8.0 | 0.00 | 0.00 | 0.00 | 42 | 1057.3 |
| 20260903112616 | 90 | 122 | 4.0 | 8.0 | 0.00 | 0.00 | 0.00 | 43 | 1057.3 |
| 20260903112515 | 90 | 114 | 4.0 | 9.0 | 0.00 | 0.00 | 0.00 | 43 | 1057.3 |
| 20260903112445 | 90 | 125 | 4.0 | 11.0 | 0.00 | 0.00 | 0.00 | 43 | 1057.3 |
| 20260903112437 | 90 | 154 | 5.0 | 11.0 | 0.00 | 0.00 | 0.00 | 42 | 1057.3 |
| 20260903112128 | 90 | 194 | 5.0 | 11.0 | 0.00 | 0.00 | 0.00 | 42 | 1057.4 |
| 20260903112112 | 90 | 195 | 5.0 | 11.0 | 0.00 | 0.00 | 0.00 | 43 | 1057.4 |
| 20260903112012 | 90 | 195 | 4.0 | 11.0 | 0.00 | 0.00 | 0.00 | 42 | 1057.3 |
| 20260903111947 | 90 | 236 | 4.0 | 11.0 | 0.00 | 0.00 | 0.00 | 43 | 1057.3 |
| 20260903111939 | 90 | 188 | 4.0 | 11.0 | 0.00 | 0.00 | 0.00 | 43 | 1057.3 |
| 20260903111629 | 89 | 219 | 4.0 | 11.0 | 0.00 | 0.00 | 0.00 | 42 | 1057.3 |
| 20260903111618 | 89 | 221 | 4.0 | 11.0 | 0.00 | 0.00 | 0.00 | 42 | 1057.3 |
| 20260903111535 | 89 | 224 | 3.0 | 11.0 | 0.00 | 0.00 | 0.00 | 43 | 1057.3 |
| 20260903111527 | 89 | 253 | 3.0 | 9.0 | 0.00 | 0.00 | 0.00 | 42 | 1057.4 |
| 20260903111513 | 89 | 292 | 3.0 | 8.0 | 0.00 | 0.00 | 0.00 | 43 | 1057.4 |
| 20260903111501 | 89 | 183 | 3.0 | 8.0 | 0.00 | 0.00 | 0.00 | 44 | 1057.4 |
| 20260903111234 | 89 | 231 | 3.0 | 7.0 | 0.00 | 0.00 | 0.00 | 43 | 1057.4 |
| 20260903110931 | 89 | 235 | 3.0 | 7.0 | 0.00 | 0.00 | 0.00 | 44 | 1057.4 |
| 20260903110923 | 89 | 155 | 3.0 | 7.0 | 0.00 | 0.00 | 0.00 | 44 | 1057.4 |
| 20260903110635 | 89 | 119 | 4.0 | 9.0 | 0.00 | 0.00 | 0.00 | 43 | 1057.4 |
| 20260903110626 | 89 | 53 | 4.0 | 9.0 | 0.00 | 0.00 | 0.00 | 43 | 1057.4 |
| 20260903110616 | 89 | 266 | 4.0 | 9.0 | 0.00 | 0.00 | 0.00 | 44 | 1057.5 |
| 20260903110254 | 89 | 299 | 4.0 | 11.0 | 0.00 | 0.00 | 0.00 | 44 | 1057.4 |
| 20260903110154 | 89 | 210 | 4.0 | 11.0 | 0.00 | 0.00 | 0.00 | 44 | 1057.4 |
| 20260903110129 | 89 | 199 | 4.0 | 11.0 | 0.00 | 0.00 | 0.00 | 44 | 1057.4 |
| 20260903110054 | 89 | 208 | 5.0 | 11.0 | 0.00 | 0.00 | 0.00 | 44 | 1057.5 |
| 20260903105953 | 89 | 218 | 5.0 | 11.0 | 0.00 | 0.00 | 0.00 | 44 | 1057.4 |
| 20260903105851 | 88 | 198 | 5.0 | 11.0 | 0.00 | 0.00 | 0.00 | 44 | 1057.5 |
| 20260903105753 | 88 | 170 | 5.0 | 11.0 | 0.00 | 0.00 | 0.00 | 44 | 1057.5 |
| 20260903105652 | 88 | 196 | 4.0 | 11.0 | 0.00 | 0.00 | 0.00 | 44 | 1057.5 |
| 20260903105624 | 88 | 184 | 4.0 | 11.0 | 0.00 | 0.00 | 0.00 | 44 | 1057.5 |
| 20260903105555 | 88 | 201 | 4.0 | 11.0 | 0.00 | 0.00 | 0.00 | 44 | 1057.5 |
| 20260903105452 | 88 | 216 | 4.0 | 11.0 | 0.00 | 0.00 | 0.00 | 44 | 1057.5 |
| 20260903105352 | 88 | 231 | 4.0 | 9.0 | 0.00 | 0.00 | 0.00 | 44 | 1057.5 |
| 20260903105250 | 88 | 168 | 5.0 | 9.0 | 0.00 | 0.00 | 0.00 | 44 | 1057.6 |
| 20260903105150 | 88 | 222 | 5.0 | 11.0 | 0.00 | 0.00 | 0.00 | 44 | 1057.5 |
| 20260903105118 | 88 | 225 | 5.0 | 11.0 | 0.00 | 0.00 | 0.00 | 44 | 1057.5 |
| 20260903105051 | 88 | 220 | 5.0 | 11.0 | 0.00 | 0.00 | 0.00 | 44 | 1057.6 |
| 20260903104950 | 88 | 219 | 5.0 | 11.0 | 0.00 | 0.00 | 0.00 | 44 | 1057.5 |
| 20260903104850 | 88 | 235 | 5.0 | 11.0 | 0.00 | 0.00 | 0.00 | 44 | 1057.6 |
| 20260903104748 | 88 | 204 | 5.0 | 11.0 | 0.00 | 0.00 | 0.00 | 45 | 1057.6 |
| 20260903104733 | 88 | 186 | 4.0 | 11.0 | 0.00 | 0.00 | 0.00 | 44 | 1057.6 |
| 20260903104725 | 88 | 166 | 5.0 | 11.0 | 0.00 | 0.00 | 0.00 | 44 | 1057.6 |
| 20260903104718 | 88 | 166 | 5.0 | 11.0 | 0.00 | 0.00 | 0.00 | 44 | 1057.6 |
| 20260903104346 | 88 | 116 | 4.0 | 11.0 | 0.00 | 0.00 | 0.00 | 44 | 1057.6 |
| 20260903104245 | 89 | 120 | 4.0 | 11.0 | 0.00 | 0.00 | 0.00 | 43 | 1057.6 |
| 20260903104158 | 89 | 59 | 4.0 | 9.0 | 0.00 | 0.00 | 0.00 | 44 | 1057.7 |
| 20260903104148 | 89 | 112 | 3.0 | 9.0 | 0.00 | 0.00 | 0.00 | 44 | 1057.8 |
| 20260903104140 | 89 | 137 | 3.0 | 9.0 | 0.00 | 0.00 | 0.00 | 44 | 1057.8 |
| 20260903104127 | 89 | 177 | 3.0 | 8.0 | 0.00 | 0.00 | 0.00 | 44 | 1057.7 |
| 20260903103900 | 89 | 129 | 4.0 | 8.0 | 0.00 | 0.00 | 0.00 | 44 | 1057.7 |
| 20260903103607 | 89 | 147 | 3.0 | 8.0 | 0.00 | 0.00 | 0.00 | 44 | 1057.7 |
| 20260903103534 | 89 | 167 | 3.0 | 8.0 | 0.00 | 0.00 | 0.00 | 43 | 1057.7 |
| 20260903103446 | 88 | 181 | 3.0 | 8.0 | 0.00 | 0.00 | 0.00 | 43 | 1057.7 |
| 20260903103336 | 88 | 116 | 3.0 | 8.0 | 0.00 | 0.00 | 0.00 | 44 | 1057.8 |
| 20260903103232 | 88 | 198 | 3.0 | 8.0 | 0.00 | 0.00 | 0.00 | 43 | 1057.8 |
| 20260903103132 | 88 | 197 | 3.0 | 8.0 | 0.00 | 0.00 | 0.00 | 44 | 1057.8 |
| 20260903103107 | 88 | 197 | 3.0 | 8.0 | 0.00 | 0.00 | 0.00 | 44 | 1057.9 |
| 20260903103032 | 88 | 198 | 3.0 | 8.0 | 0.00 | 0.00 | 0.00 | 45 | 1057.9 |
| 20260903102931 | 88 | 218 | 3.0 | 8.0 | 0.00 | 0.00 | 0.00 | 45 | 1057.8 |
| 20260903102832 | 88 | 201 | 3.0 | 8.0 | 0.00 | 0.00 | 0.00 | 45 | 1057.9 |
| 20260903102731 | 87 | 206 | 3.0 | 8.0 | 0.00 | 0.00 | 0.00 | 46 | 1057.9 |
| 20260903102631 | 87 | 129 | 3.0 | 8.0 | 0.00 | 0.00 | 0.00 | 46 | 1057.9 |
| 20260903102607 | 87 | 130 | 4.0 | 8.0 | 0.00 | 0.00 | 0.00 | 46 | 1057.9 |
| 20260903102532 | 87 | 77 | 4.0 | 8.0 | 0.00 | 0.00 | 0.00 | 46 | 1057.9 |
| 20260903102431 | 87 | 244 | 4.0 | 9.0 | 0.00 | 0.00 | 0.00 | 45 | 1057.9 |
| 20260903102331 | 87 | 283 | 4.0 | 9.0 | 0.00 | 0.00 | 0.00 | 45 | 1057.9 |
| 20260903102232 | 87 | 116 | 4.0 | 9.0 | 0.00 | 0.00 | 0.00 | 44 | 1057.9 |
| 20260903102132 | 87 | 122 | 4.0 | 9.0 | 0.00 | 0.00 | 0.00 | 44 | 1057.9 |
| 20260903102106 | 87 | 146 | 4.0 | 9.0 | 0.00 | 0.00 | 0.00 | 44 | 1058.0 |
| 20260903102033 | 87 | 152 | 4.0 | 9.0 | 0.00 | 0.00 | 0.00 | 44 | 1058.0 |
| 20260903101931 | 87 | 170 | 4.0 | 9.0 | 0.00 | 0.00 | 0.00 | 44 | 1058.0 |
| 20260903101832 | 87 | 152 | 4.0 | 9.0 | 0.00 | 0.00 | 0.00 | 44 | 1058.0 |
| 20260903101735 | 87 | 118 | 4.0 | 9.0 | 0.00 | 0.00 | 0.00 | 45 | 1058.0 |
| 20260903101721 | 87 | 153 | 4.0 | 9.0 | 0.00 | 0.00 | 0.00 | 44 | 1058.0 |
| 20260903101714 | 87 | 153 | 3.0 | 9.0 | 0.00 | 0.00 | 0.00 | 44 | 1058.1 |
| 20260903101655 | 87 | 205 | 3.0 | 9.0 | 0.00 | 0.00 | 0.00 | 44 | 1058.1 |
| 20260903101400 | 87 | 212 | 3.0 | 8.0 | 0.00 | 0.00 | 0.00 | 44 | 1058.1 |
| 20260903101352 | 87 | 213 | 3.0 | 8.0 | 0.00 | 0.00 | 0.00 | 44 | 1058.0 |
| 20260903101336 | 87 | 214 | 3.0 | 8.0 | 0.00 | 0.00 | 0.00 | 45 | 1058.1 |
| 20260903101328 | 87 | 201 | 3.0 | 8.0 | 0.00 | 0.00 | 0.00 | 45 | 1058.0 |
| 20260903101317 | 87 | 206 | 3.0 | 8.0 | 0.00 | 0.00 | 0.00 | 45 | 1058.0 |
| 20260903101309 | 87 | 95 | 4.0 | 8.0 | 0.00 | 0.00 | 0.00 | 44 | 1058.0 |
| 20260903101301 | 87 | 95 | 4.0 | 8.0 | 0.00 | 0.00 | 0.00 | 44 | 1058.1 |
| 20260903100532 | 86 | 145 | 4.0 | 9.0 | 0.00 | 0.00 | 0.00 | 44 | 1058.0 |
| 20260903100431 | 86 | 144 | 4.0 | 9.0 | 0.00 | 0.00 | 0.00 | 45 | 1058.1 |
| 20260903100404 | 86 | 100 | 4.0 | 9.0 | 0.00 | 0.00 | 0.00 | 45 | 1058.1 |
| 20260903100356 | 86 | 200 | 4.0 | 9.0 | 0.00 | 0.00 | 0.00 | 44 | 1058.1 |
| 20260903100117 | 86 | 153 | 4.0 | 9.0 | 0.00 | 0.00 | 0.00 | 44 | 1058.1 |
| 20260903100032 | 86 | 143 | 4.0 | 9.0 | 0.00 | 0.00 | 0.00 | 44 | 1058.1 |
| 20260903095932 | 86 | 64 | 4.0 | 9.0 | 0.00 | 0.00 | 0.00 | 44 | 1058.0 |
| 20260903095831 | 86 | 106 | 4.0 | 9.0 | 0.00 | 0.00 | 0.00 | 44 | 1058.1 |
| 20260903095731 | 86 | 110 | 4.0 | 9.0 | 0.00 | 0.00 | 0.00 | 44 | 1058.1 |
| 20260903095631 | 86 | 110 | 4.0 | 9.0 | 0.00 | 0.00 | 0.00 | 44 | 1058.1 |
| 20260903095605 | 86 | 110 | 4.0 | 9.0 | 0.00 | 0.00 | 0.00 | 44 | 1058.0 |
| 20260903095531 | 86 | 73 | 4.0 | 9.0 | 0.00 | 0.00 | 0.00 | 44 | 1058.0 |
| 20260903095432 | 86 | 109 | 4.0 | 9.0 | 0.00 | 0.00 | 0.00 | 43 | 1058.1 |
| 20260903095332 | 86 | 118 | 4.0 | 9.0 | 0.00 | 0.00 | 0.00 | 44 | 1058.1 |
| 20260903095312 | 86 | 120 | 4.0 | 9.0 | 0.00 | 0.00 | 0.00 | 44 | 1058.1 |
| 20260903095301 | 86 | 182 | 3.0 | 8.0 | 0.00 | 0.00 | 0.00 | 45 | 1058.1 |
| 20260903095254 | 86 | 159 | 3.0 | 8.0 | 0.00 | 0.00 | 0.00 | 45 | 1058.1 |
| 20260903094930 | 86 | 159 | 3.0 | 8.0 | 0.00 | 0.00 | 0.00 | 45 | 1058.1 |
| 20260903094829 | 86 | 150 | 3.0 | 8.0 | 0.00 | 0.00 | 0.00 | 44 | 1058.1 |
| 20260903094730 | 86 | 179 | 3.0 | 8.0 | 0.00 | 0.00 | 0.00 | 44 | 1058.1 |
| 20260903094627 | 86 | 168 | 4.0 | 10.0 | 0.00 | 0.00 | 0.00 | 44 | 1058.1 |
| 20260903094605 | 86 | 168 | 4.0 | 10.0 | 0.00 | 0.00 | 0.00 | 43 | 1058.1 |
| 20260903094528 | 86 | 140 | 4.0 | 10.0 | 0.00 | 0.00 | 0.00 | 43 | 1058.1 |
| 20260903094429 | 86 | 140 | 4.0 | 10.0 | 0.00 | 0.00 | 0.00 | 43 | 1058.1 |
| 20260903094350 | 86 | 140 | 4.0 | 10.0 | 0.00 | 0.00 | 0.00 | 44 | 1058.2 |
| 20260903094339 | 86 | 138 | 4.0 | 10.0 | 0.00 | 0.00 | 0.00 | 44 | 1058.1 |
| 20260903094320 | 86 | 138 | 4.0 | 10.0 | 0.00 | 0.00 | 0.00 | 44 | 1058.2 |
| 20260903094052 | 86 | 137 | 4.0 | 10.0 | 0.00 | 0.00 | 0.00 | 43 | 1058.2 |
| 20260903094043 | 86 | 137 | 3.0 | 10.0 | 0.00 | 0.00 | 0.00 | 43 | 1058.2 |
| 20260903093718 | 86 | 137 | 3.0 | 10.0 | 0.00 | 0.00 | 0.00 | 43 | 1058.2 |
| 20260903093604 | 86 | 114 | 3.0 | 7.0 | 0.00 | 0.00 | 0.00 | 43 | 1058.2 |
| 20260903093540 | 86 | 114 | 3.0 | 7.0 | 0.00 | 0.00 | 0.00 | 42 | 1058.2 |
| 20260903093531 | 85 | 145 | 3.0 | 9.0 | 0.00 | 0.00 | 0.00 | 42 | 1058.1 |
| 20260903093519 | 85 | 147 | 3.0 | 9.0 | 0.00 | 0.00 | 0.00 | 42 | 1058.2 |
| 20260903093240 | 85 | 147 | 4.0 | 9.0 | 0.00 | 0.00 | 0.00 | 42 | 1058.2 |
| 20260903092916 | 85 | 151 | 4.0 | 9.0 | 0.00 | 0.00 | 0.00 | 41 | 1058.2 |
| 20260903092818 | 85 | 114 | 4.0 | 9.0 | 0.00 | 0.00 | 0.00 | 42 | 1058.2 |
| 20260903092718 | 85 | 163 | 4.0 | 9.0 | 0.00 | 0.00 | 0.00 | 42 | 1058.2 |
| 20260903092614 | 85 | 166 | 4.0 | 10.0 | 0.00 | 0.00 | 0.00 | 42 | 1058.2 |
| 20260903092558 | 85 | 167 | 4.0 | 10.0 | 0.00 | 0.00 | 0.00 | 42 | 1058.2 |
| 20260903092522 | 85 | 167 | 4.0 | 10.0 | 0.00 | 0.00 | 0.00 | 41 | 1058.2 |
| 20260903092425 | 85 | 185 | 4.0 | 10.0 | 0.00 | 0.00 | 0.00 | 41 | 1058.1 |
| 20260903092417 | 85 | 158 | 4.0 | 10.0 | 0.00 | 0.00 | 0.00 | 41 | 1058.2 |
| 20260903092401 | 85 | 197 | 3.0 | 10.0 | 0.00 | 0.00 | 0.00 | 42 | 1058.1 |
| 20260903092349 | 85 | 222 | 3.0 | 10.0 | 0.00 | 0.00 | 0.00 | 41 | 1058.1 |
| 20260903092340 | 85 | 176 | 3.0 | 10.0 | 0.00 | 0.00 | 0.00 | 41 | 1058.1 |
| 20260903091829 | 85 | 120 | 3.0 | 10.0 | 0.00 | 0.00 | 0.00 | 39 | 1058.1 |
| 20260903091821 | 85 | 121 | 3.0 | 10.0 | 0.00 | 0.00 | 0.00 | 42 | 1058.1 |
| 20260903091807 | 85 | 102 | 3.0 | 7.0 | 0.00 | 0.00 | 0.00 | 42 | 1058.1 |
| 20260903091503 | 85 | 102 | 3.0 | 8.0 | 0.00 | 0.00 | 0.00 | 44 | 1058.1 |
| 20260903091403 | 85 | 156 | 3.0 | 8.0 | 0.00 | 0.00 | 0.00 | 44 | 1058.1 |
| 20260903091326 | 85 | 155 | 3.0 | 8.0 | 0.00 | 0.00 | 0.00 | 44 | 1058.1 |
| 20260903091319 | 85 | 155 | 3.0 | 8.0 | 0.00 | 0.00 | 0.00 | 45 | 1058.1 |
| 20260903091303 | 85 | 97 | 3.0 | 8.0 | 0.00 | 0.00 | 0.00 | 45 | 1058.1 |
| 20260903091035 | 85 | 97 | 4.0 | 8.0 | 0.00 | 0.00 | 0.00 | 44 | 1058.1 |
| 20260903091027 | 85 | 97 | 4.0 | 9.0 | 0.00 | 0.00 | 0.00 | 44 | 1058.1 |
| 20260903090701 | 85 | 108 | 3.0 | 9.0 | 0.00 | 0.00 | 0.00 | 46 | 1058.2 |
| 20260903090639 | 85 | 109 | 3.0 | 9.0 | 0.00 | 0.00 | 0.00 | 47 | 1058.1 |
| 20260903090631 | 85 | 107 | 3.0 | 9.0 | 0.00 | 0.00 | 0.00 | 47 | 1058.1 |
| 20260903090622 | 85 | 106 | 3.0 | 9.0 | 0.00 | 0.00 | 0.00 | 49 | 1058.1 |
| 20260903090349 | 84 | 104 | 3.0 | 9.0 | 0.00 | 0.00 | 0.00 | 50 | 1058.1 |
| 20260903090341 | 84 | 104 | 3.0 | 9.0 | 0.00 | 0.00 | 0.00 | 48 | 1058.1 |
| 20260903090045 | 84 | 100 | 3.0 | 9.0 | 0.00 | 0.00 | 0.00 | 49 | 1058.0 |
| 20260903090001 | 84 | 101 | 3.0 | 9.0 | 0.00 | 0.00 | 0.00 | 50 | 1058.0 |
| 20260903085901 | 84 | 107 | 3.0 | 8.0 | 0.00 | 0.00 | 0.00 | 53 | 1058.0 |
| 20260903085801 | 84 | 106 | 3.0 | 6.0 | 0.00 | 0.00 | 0.00 | 53 | 1058.0 |
| 20260903085701 | 84 | 106 | 3.0 | 6.0 | 0.00 | 0.00 | 0.00 | 52 | 1058.0 |
| 20260903085602 | 84 | 106 | 3.0 | 6.0 | 0.00 | 0.00 | 0.00 | 53 | 1058.0 |
| 20260903085545 | 84 | 106 | 3.0 | 6.0 | 0.00 | 0.00 | 0.00 | 53 | 1058.0 |
| 20260903085501 | 84 | 104 | 3.0 | 6.0 | 0.00 | 0.00 | 0.00 | 53 | 1058.0 |
| 20260903085400 | 83 | 104 | 3.0 | 6.0 | 0.00 | 0.00 | 0.00 | 52 | 1058.0 |
| 20260903085301 | 83 | 104 | 3.0 | 6.0 | 0.00 | 0.00 | 0.00 | 52 | 1058.0 |
| 20260903085200 | 83 | 106 | 3.0 | 6.0 | 0.00 | 0.00 | 0.00 | 53 | 1057.9 |
| 20260903085102 | 83 | 111 | 3.0 | 7.0 | 0.00 | 0.00 | 0.00 | 52 | 1057.9 |
| 20260903085043 | 83 | 111 | 3.0 | 7.0 | 0.00 | 0.00 | 0.00 | 53 | 1057.9 |
| 20260903085002 | 83 | 111 | 3.0 | 7.0 | 0.00 | 0.00 | 0.00 | 52 | 1057.9 |
| 20260903084936 | 83 | 112 | 3.0 | 7.0 | 0.00 | 0.00 | 0.00 | 52 | 1057.9 |
| 20260903084928 | 83 | 111 | 4.0 | 7.0 | 0.00 | 0.00 | 0.00 | 53 | 1057.9 |
| 20260903084908 | 83 | 111 | 4.0 | 7.0 | 0.00 | 0.00 | 0.00 | 53 | 1058.0 |
| 20260903084636 | 83 | 83 | 4.0 | 7.0 | 0.00 | 0.00 | 0.00 | 53 | 1057.9 |
| 20260903084624 | 83 | 77 | 4.0 | 7.0 | 0.00 | 0.00 | 0.00 | 53 | 1057.9 |
| 20260903084301 | 83 | 79 | 4.0 | 7.0 | 0.00 | 0.00 | 0.00 | 54 | 1057.9 |
| 20260903084201 | 83 | 82 | 3.0 | 7.0 | 0.00 | 0.00 | 0.00 | 55 | 1057.9 |
| 20260903084115 | 83 | 161 | 3.0 | 6.0 | 0.00 | 0.00 | 0.00 | 56 | 1057.9 |
| 20260903084108 | 83 | 162 | 3.0 | 6.0 | 0.00 | 0.00 | 0.00 | 56 | 1057.9 |
| 20260903084057 | 82 | 162 | 3.0 | 6.0 | 0.00 | 0.00 | 0.00 | 56 | 1057.9 |
| 20260903084049 | 82 | 163 | 3.0 | 6.0 | 0.00 | 0.00 | 0.00 | 56 | 1057.9 |
| 20260903084038 | 82 | 163 | 3.0 | 6.0 | 0.00 | 0.00 | 0.00 | 56 | 1058.0 |
| 20260903084030 | 82 | 164 | 3.0 | 6.0 | 0.00 | 0.00 | 0.00 | 57 | 1058.0 |
| 20260903083752 | 82 | 165 | 3.0 | 6.0 | 0.00 | 0.00 | 0.00 | 57 | 1057.9 |
| 20260903083741 | 82 | 164 | 3.0 | 6.0 | 0.00 | 0.00 | 0.00 | 57 | 1057.9 |
| 20260903083201 | 82 | 173 | 3.0 | 6.0 | 0.00 | 0.00 | 0.00 | 54 | 1058.0 |
| 20260903083102 | 82 | 233 | 3.0 | 4.0 | 0.00 | 0.00 | 0.00 | 53 | 1057.9 |
| 20260903083047 | 82 | 233 | 3.0 | 4.0 | 0.00 | 0.00 | 0.00 | 53 | 1057.9 |
| 20260903083002 | 82 | 234 | 2.0 | 4.0 | 0.00 | 0.00 | 0.00 | 53 | 1058.0 |
| 20260903082901 | 82 | 234 | 2.0 | 4.0 | 0.00 | 0.00 | 0.00 | 55 | 1057.9 |
| 20260903082801 | 82 | 237 | 2.0 | 4.0 | 0.00 | 0.00 | 0.00 | 56 | 1057.9 |
| 20260903082701 | 82 | 241 | 2.0 | 4.0 | 0.00 | 0.00 | 0.00 | 57 | 1057.9 |
| 20260903082602 | 82 | 241 | 2.0 | 4.0 | 0.00 | 0.00 | 0.00 | 57 | 1057.9 |
| 20260903082537 | 82 | 241 | 2.0 | 4.0 | 0.00 | 0.00 | 0.00 | 57 | 1057.9 |
| 20260903082501 | 82 | 252 | 2.0 | 4.0 | 0.00 | 0.00 | 0.00 | 58 | 1057.8 |
| 20260903082433 | 82 | 253 | 2.0 | 4.0 | 0.00 | 0.00 | 0.00 | 60 | 1057.8 |
| 20260903082425 | 82 | 253 | 2.0 | 4.0 | 0.00 | 0.00 | 0.00 | 60 | 1057.8 |
| 20260903082102 | 82 | 255 | 2.0 | 4.0 | 0.00 | 0.00 | 0.00 | 60 | 1057.8 |
| 20260903082037 | 82 | 255 | 2.0 | 4.0 | 0.00 | 0.00 | 0.00 | 59 | 1057.8 |
| 20260903081955 | 82 | 255 | 2.0 | 4.0 | 0.00 | 0.00 | 0.00 | 58 | 1057.8 |
| 20260903081855 | 82 | 255 | 2.0 | 4.0 | 0.00 | 0.00 | 0.00 | 61 | 1057.8 |
| 20260903081757 | 82 | 255 | 2.0 | 4.0 | 0.00 | 0.00 | 0.00 | 61 | 1057.9 |
| 20260903081748 | 81 | 255 | 2.0 | 4.0 | 0.00 | 0.00 | 0.00 | 61 | 1057.8 |
| 20260903081736 | 81 | 256 | 2.0 | 4.0 | 0.00 | 0.00 | 0.00 | 61 | 1057.8 |
| 20260903081732 | 81 | 256 | 2.0 | 4.0 | 0.00 | 0.00 | 0.00 | 62 | 1057.8 |
| 20260903081717 | 81 | 257 | 2.0 | 4.0 | 0.00 | 0.00 | 0.00 | 63 | 1057.8 |
| 20260903081707 | 81 | 258 | 2.0 | 4.0 | 0.00 | 0.00 | 0.00 | 63 | 1057.9 |
| 20260903081659 | 81 | 258 | 2.0 | 4.0 | 0.00 | 0.00 | 0.00 | 63 | 1057.8 |
| 20260903081649 | 81 | 258 | 2.0 | 4.0 | 0.00 | 0.00 | 0.00 | 63 | 1057.8 |
| 20260903081633 | 80 | 258 | 3.0 | 4.0 | 0.00 | 0.00 | 0.00 | 63 | 1057.8 |
| 20260903080933 | 80 | 257 | 2.0 | 4.0 | 0.00 | 0.00 | 0.00 | 64 | 1057.9 |
| 20260903080922 | 80 | 257 | 2.0 | 4.0 | 0.00 | 0.00 | 0.00 | 63 | 1057.9 |
| 20260903080910 | 80 | 257 | 2.0 | 4.0 | 0.00 | 0.00 | 0.00 | 64 | 1057.9 |
| 20260903080906 | 80 | 257 | 2.0 | 4.0 | 0.00 | 0.00 | 0.00 | 63 | 1057.9 |
| 20260903080853 | 80 | 256 | 2.0 | 4.0 | 0.00 | 0.00 | 0.00 | 63 | 1057.9 |
| 20260903080404 | 80 | 257 | 2.0 | 4.0 | 0.00 | 0.00 | 0.00 | 64 | 1057.9 |
| 20260903080137 | 80 | 257 | 2.0 | 3.0 | 0.00 | 0.00 | 0.00 | 64 | 1057.9 |
| 20260903080122 | 80 | 257 | 2.0 | 3.0 | 0.00 | 0.00 | 0.00 | 64 | 1057.9 |
| 20260903075855 | 80 | 257 | 2.0 | 4.0 | 0.00 | 0.00 | 0.00 | 64 | 1057.9 |
| 20260903075554 | 80 | 257 | 2.0 | 4.0 | 0.00 | 0.00 | 0.00 | 64 | 1057.9 |
| 20260903075544 | 80 | 257 | 2.0 | 4.0 | 0.00 | 0.00 | 0.00 | 64 | 1057.9 |
| 20260903075533 | 80 | 257 | 2.0 | 4.0 | 0.00 | 0.00 | 0.00 | 64 | 1057.9 |
| 20260903075521 | 80 | 256 | 2.0 | 4.0 | 0.00 | 0.00 | 0.00 | 64 | 1057.9 |
| 20260903075512 | 80 | 257 | 2.0 | 4.0 | 0.00 | 0.00 | 0.00 | 64 | 1057.9 |
| 20260903075452 | 80 | 258 | 2.0 | 4.0 | 0.00 | 0.00 | 0.00 | 63 | 1057.9 |
| 20260903074748 | 80 | 258 | 2.0 | 4.0 | 0.00 | 0.00 | 0.00 | 64 | 1057.9 |
| 20260903074733 | 80 | 259 | 2.0 | 4.0 | 0.00 | 0.00 | 0.00 | 64 | 1057.9 |
| 20260903074723 | 80 | 258 | 2.0 | 4.0 | 0.00 | 0.00 | 0.00 | 64 | 1058.0 |
| 20260903074715 | 80 | 274 | 2.0 | 4.0 | 0.00 | 0.00 | 0.00 | 64 | 1058.0 |
| 20260903074132 | 80 | 274 | 1.0 | 4.0 | 0.00 | 0.00 | 0.00 | 64 | 1057.9 |
| 20260903074009 | 80 | 274 | 1.0 | 4.0 | 0.00 | 0.00 | 0.00 | 65 | 1057.9 |
| 20260903073932 | 80 | 274 | 1.0 | 4.0 | 0.00 | 0.00 | 0.00 | 65 | 1057.9 |
| 20260903073831 | 79 | 274 | 1.0 | 3.0 | 0.00 | 0.00 | 0.00 | 65 | 1057.9 |
| 20260903073732 | 79 | 274 | 1.0 | 2.0 | 0.00 | 0.00 | 0.00 | 67 | 1057.9 |
| 20260903073631 | 79 | 275 | 1.0 | 2.0 | 0.00 | 0.00 | 0.00 | 66 | 1057.9 |
| 20260903073510 | 79 | 274 | 1.0 | 2.0 | 0.00 | 0.00 | 0.00 | 66 | 1057.9 |
| 20260903073430 | 78 | 274 | 1.0 | 6.0 | 0.00 | 0.00 | 0.00 | 67 | 1057.9 |
| 20260903073331 | 78 | 275 | 1.0 | 6.0 | 0.00 | 0.00 | 0.00 | 67 | 1057.9 |
| 20260903073253 | 78 | 274 | 1.0 | 6.0 | 0.00 | 0.00 | 0.00 | 67 | 1057.9 |
| 20260903073245 | 78 | 274 | 1.0 | 6.0 | 0.00 | 0.00 | 0.00 | 67 | 1057.9 |
| 20260903073229 | 78 | 275 | 1.0 | 6.0 | 0.00 | 0.00 | 0.00 | 67 | 1057.9 |
| 20260903072932 | 78 | 274 | 2.0 | 6.0 | 0.00 | 0.00 | 0.00 | 68 | 1057.9 |
| 20260903072831 | 77 | 274 | 2.0 | 6.0 | 0.00 | 0.00 | 0.00 | 68 | 1057.9 |
| 20260903072752 | 77 | 274 | 2.0 | 6.0 | 0.00 | 0.00 | 0.00 | 68 | 1057.9 |
| 20260903072744 | 77 | 274 | 2.0 | 6.0 | 0.00 | 0.00 | 0.00 | 68 | 1057.9 |
| 20260903072726 | 77 | 274 | 2.0 | 6.0 | 0.00 | 0.00 | 0.00 | 69 | 1058.0 |
| 20260903072431 | 77 | 274 | 2.0 | 6.0 | 0.00 | 0.00 | 0.00 | 69 | 1057.9 |
| 20260903072408 | 77 | 275 | 2.0 | 6.0 | 0.00 | 0.00 | 0.00 | 69 | 1058.0 |
| 20260903072358 | 77 | 274 | 2.0 | 6.0 | 0.00 | 0.00 | 0.00 | 69 | 1058.0 |
| 20260903072034 | 76 | 274 | 2.0 | 6.0 | 0.00 | 0.00 | 0.00 | 69 | 1058.0 |
| 20260903072010 | 76 | 276 | 2.0 | 6.0 | 0.00 | 0.00 | 0.00 | 70 | 1058.0 |
| 20260903071931 | 76 | 274 | 2.0 | 6.0 | 0.00 | 0.00 | 0.00 | 70 | 1058.0 |
| 20260903071904 | 76 | 275 | 2.0 | 6.0 | 0.00 | 0.00 | 0.00 | 70 | 1058.0 |
| 20260903071856 | 76 | 275 | 2.0 | 6.0 | 0.00 | 0.00 | 0.00 | 70 | 1058.0 |
| 20260903071610 | 76 | 276 | 2.0 | 6.0 | 0.00 | 0.00 | 0.00 | 70 | 1058.0 |
| 20260903071603 | 76 | 276 | 2.0 | 6.0 | 0.00 | 0.00 | 0.00 | 71 | 1058.0 |
| 20260903071555 | 76 | 276 | 2.0 | 6.0 | 0.00 | 0.00 | 0.00 | 71 | 1058.0 |
| 20260903071254 | 75 | 276 | 2.0 | 6.0 | 0.00 | 0.00 | 0.00 | 71 | 1057.9 |
| 20260903071246 | 75 | 276 | 2.0 | 6.0 | 0.00 | 0.00 | 0.00 | 71 | 1057.9 |
| 20260903071230 | 75 | 276 | 2.0 | 6.0 | 0.00 | 0.00 | 0.00 | 71 | 1057.9 |
| 20260903071221 | 75 | 277 | 2.0 | 6.0 | 0.00 | 0.00 | 0.00 | 71 | 1057.9 |
| 20260903070957 | 75 | 277 | 2.0 | 6.0 | 0.00 | 0.00 | 0.00 | 71 | 1057.9 |
| 20260903070631 | 74 | 276 | 2.0 | 6.0 | 0.00 | 0.00 | 0.00 | 72 | 1057.9 |
| 20260903070532 | 74 | 278 | 2.0 | 4.0 | 0.00 | 0.00 | 0.00 | 73 | 1057.8 |
| 20260903070507 | 74 | 278 | 2.0 | 4.0 | 0.00 | 0.00 | 0.00 | 73 | 1057.9 |
| 20260903070431 | 74 | 277 | 2.0 | 6.0 | 0.00 | 0.00 | 0.00 | 73 | 1057.9 |
| 20260903070331 | 74 | 277 | 2.0 | 6.0 | 0.00 | 0.00 | 0.00 | 73 | 1057.9 |
| 20260903070251 | 74 | 277 | 2.0 | 6.0 | 0.00 | 0.00 | 0.00 | 73 | 1057.9 |
| 20260903070243 | 74 | 277 | 2.0 | 7.0 | 0.00 | 0.00 | 0.00 | 74 | 1057.9 |
| 20260903070223 | 73 | 277 | 2.0 | 7.0 | 0.00 | 0.00 | 0.00 | 74 | 1057.9 |
| 20260903065930 | 73 | 277 | 2.0 | 7.0 | 0.00 | 0.00 | 0.00 | 74 | 1057.9 |
| 20260903065827 | 73 | 277 | 2.0 | 7.0 | 0.00 | 0.00 | 0.00 | 74 | 1057.9 |
| 20260903065727 | 73 | 277 | 2.0 | 7.0 | 0.00 | 0.00 | 0.00 | 74 | 1057.9 |
| 20260903065715 | 73 | 277 | 2.0 | 7.0 | 0.00 | 0.00 | 0.00 | 75 | 1057.9 |
| 20260903065702 | 73 | 277 | 2.0 | 7.0 | 0.00 | 0.00 | 0.00 | 75 | 1057.9 |
| 20260903065654 | 73 | 277 | 2.0 | 7.0 | 0.00 | 0.00 | 0.00 | 75 | 1057.8 |
| 20260903065425 | 72 | 277 | 3.0 | 7.0 | 0.00 | 0.00 | 0.00 | 75 | 1057.8 |
| 20260903065408 | 72 | 278 | 3.0 | 4.0 | 0.00 | 0.00 | 0.00 | 75 | 1057.9 |
| 20260903065133 | 72 | 278 | 3.0 | 4.0 | 0.00 | 0.00 | 0.00 | 76 | 1057.8 |
| 20260903065119 | 72 | 278 | 3.0 | 4.0 | 0.00 | 0.00 | 0.00 | 76 | 1057.8 |
| 20260903064854 | 71 | 278 | 3.0 | 4.0 | 0.00 | 0.00 | 0.00 | 76 | 1057.9 |
| 20260903064614 | 71 | 278 | 3.0 | 4.0 | 0.00 | 0.00 | 0.00 | 76 | 1057.8 |
| 20260903064601 | 71 | 278 | 3.0 | 4.0 | 0.00 | 0.00 | 0.00 | 76 | 1057.8 |
| 20260903064337 | 71 | 279 | 3.0 | 4.0 | 0.00 | 0.00 | 0.00 | 76 | 1057.8 |
| 20260903064028 | 71 | 279 | 3.0 | 4.0 | 0.00 | 0.00 | 0.00 | 77 | 1057.7 |
| 20260903064008 | 71 | 278 | 3.0 | 4.0 | 0.00 | 0.00 | 0.00 | 77 | 1057.8 |
| 20260903063915 | 71 | 279 | 3.0 | 4.0 | 0.00 | 0.00 | 0.00 | 77 | 1057.8 |
| 20260903063812 | 70 | 279 | 3.0 | 4.0 | 0.00 | 0.00 | 0.00 | 77 | 1057.8 |
| 20260903063752 | 70 | 278 | 3.0 | 4.0 | 0.00 | 0.00 | 0.00 | 77 | 1057.7 |
| 20260903063744 | 70 | 280 | 3.0 | 4.0 | 0.00 | 0.00 | 0.00 | 77 | 1057.7 |
| 20260903063726 | 70 | 278 | 3.0 | 4.0 | 0.00 | 0.00 | 0.00 | 77 | 1057.7 |
| 20260903063406 | 70 | 278 | 3.0 | 4.0 | 0.00 | 0.00 | 0.00 | 77 | 1057.7 |
| 20260903063305 | 70 | 278 | 3.0 | 4.0 | 0.00 | 0.00 | 0.00 | 77 | 1057.7 |
| 20260903063247 | 70 | 278 | 3.0 | 4.0 | 0.00 | 0.00 | 0.00 | 78 | 1057.7 |
| 20260903063239 | 70 | 278 | 3.0 | 4.0 | 0.00 | 0.00 | 0.00 | 78 | 1057.7 |
| 20260903063222 | 69 | 278 | 3.0 | 6.0 | 0.00 | 0.00 | 0.00 | 78 | 1057.7 |
| 20260903062904 | 69 | 279 | 3.0 | 6.0 | 0.00 | 0.00 | 0.00 | 78 | 1057.6 |
| 20260903062834 | 69 | 280 | 3.0 | 7.0 | 0.00 | 0.00 | 0.00 | 78 | 1057.6 |
| 20260903062826 | 69 | 279 | 3.0 | 7.0 | 0.00 | 0.00 | 0.00 | 78 | 1057.6 |
| 20260903062506 | 69 | 280 | 4.0 | 7.0 | 0.00 | 0.00 | 0.00 | 78 | 1057.6 |
| 20260903062500 | 69 | 279 | 4.0 | 7.0 | 0.00 | 0.00 | 0.00 | 78 | 1057.6 |
| 20260903062403 | 69 | 280 | 4.0 | 7.0 | 0.00 | 0.00 | 0.00 | 78 | 1057.6 |
| 20260903062306 | 69 | 279 | 4.0 | 7.0 | 0.00 | 0.00 | 0.00 | 79 | 1057.6 |
| 20260903062240 | 69 | 279 | 4.0 | 7.0 | 0.00 | 0.00 | 0.00 | 79 | 1057.6 |
| 20260903062233 | 69 | 279 | 4.0 | 7.0 | 0.00 | 0.00 | 0.00 | 79 | 1057.5 |
| 20260903062211 | 69 | 280 | 4.0 | 7.0 | 0.00 | 0.00 | 0.00 | 79 | 1057.6 |
| 20260903061937 | 68 | 280 | 3.0 | 7.0 | 0.00 | 0.00 | 0.00 | 79 | 1057.6 |
| 20260903061928 | 68 | 280 | 3.0 | 6.0 | 0.00 | 0.00 | 0.00 | 80 | 1057.6 |
| 20260903061604 | 68 | 280 | 3.0 | 6.0 | 0.00 | 0.00 | 0.00 | 80 | 1057.5 |
| 20260903061504 | 68 | 281 | 3.0 | 4.0 | 0.00 | 0.00 | 0.00 | 80 | 1057.6 |
| 20260903061452 | 68 | 280 | 3.0 | 4.0 | 0.00 | 0.00 | 0.00 | 80 | 1057.6 |
| 20260903061404 | 68 | 280 | 3.0 | 6.0 | 0.00 | 0.00 | 0.00 | 80 | 1057.5 |
| 20260903061303 | 68 | 280 | 4.0 | 6.0 | 0.00 | 0.00 | 0.00 | 80 | 1057.5 |
| 20260903061203 | 68 | 280 | 4.0 | 7.0 | 0.00 | 0.00 | 0.00 | 81 | 1057.5 |
| 20260903061117 | 68 | 280 | 4.0 | 7.0 | 0.00 | 0.00 | 0.00 | 81 | 1057.5 |
| 20260903061030 | 67 | 280 | 4.0 | 7.0 | 0.00 | 0.00 | 0.00 | 81 | 1057.5 |
| 20260903061013 | 67 | 280 | 4.0 | 7.0 | 0.00 | 0.00 | 0.00 | 81 | 1057.5 |
| 20260903061001 | 67 | 280 | 4.0 | 8.0 | 0.00 | 0.00 | 0.00 | 81 | 1057.5 |
| 20260903060949 | 67 | 280 | 4.0 | 8.0 | 0.00 | 0.00 | 0.00 | 81 | 1057.4 |
| 20260903060450 | 67 | 280 | 5.0 | 8.0 | 0.00 | 0.00 | 0.00 | 81 | 1057.4 |
| 20260903060403 | 67 | 280 | 5.0 | 8.0 | 0.00 | 0.00 | 0.00 | 81 | 1057.4 |
| 20260903060304 | 67 | 281 | 5.0 | 8.0 | 0.00 | 0.00 | 0.00 | 81 | 1057.4 |
| 20260903060204 | 67 | 279 | 5.0 | 8.0 | 0.00 | 0.00 | 0.00 | 82 | 1057.4 |
| 20260903060117 | 67 | 280 | 5.0 | 8.0 | 0.00 | 0.00 | 0.00 | 82 | 1057.4 |
| 20260903060004 | 67 | 280 | 5.0 | 8.0 | 0.00 | 0.00 | 0.00 | 82 | 1057.4 |
| 20260903055950 | 67 | 280 | 5.0 | 8.0 | 0.00 | 0.00 | 0.00 | 82 | 1057.4 |
| 20260903055903 | 67 | 279 | 5.0 | 8.0 | 0.00 | 0.00 | 0.00 | 82 | 1057.4 |
| 20260903055804 | 67 | 280 | 5.0 | 7.0 | 0.00 | 0.00 | 0.00 | 82 | 1057.4 |
| 20260903055703 | 67 | 280 | 4.0 | 7.0 | 0.00 | 0.00 | 0.00 | 82 | 1057.4 |
| 20260903055644 | 67 | 280 | 4.0 | 7.0 | 0.00 | 0.00 | 0.00 | 82 | 1057.3 |
| 20260903055632 | 67 | 279 | 4.0 | 7.0 | 0.00 | 0.00 | 0.00 | 82 | 1057.3 |
| 20260903055626 | 67 | 280 | 4.0 | 7.0 | 0.00 | 0.00 | 0.00 | 82 | 1057.3 |
| 20260903055306 | 67 | 279 | 4.0 | 7.0 | 0.00 | 0.00 | 0.00 | 82 | 1057.3 |
| 20260903055231 | 67 | 280 | 4.0 | 7.0 | 0.00 | 0.00 | 0.00 | 82 | 1057.3 |
| 20260903055223 | 66 | 280 | 4.0 | 7.0 | 0.00 | 0.00 | 0.00 | 82 | 1057.3 |
| 20260903055212 | 66 | 280 | 4.0 | 7.0 | 0.00 | 0.00 | 0.00 | 82 | 1057.3 |
| 20260903055154 | 66 | 280 | 4.0 | 7.0 | 0.00 | 0.00 | 0.00 | 82 | 1057.3 |
| 20260903055146 | 66 | 280 | 4.0 | 7.0 | 0.00 | 0.00 | 0.00 | 82 | 1057.2 |
| 20260903055138 | 66 | 280 | 4.0 | 7.0 | 0.00 | 0.00 | 0.00 | 82 | 1057.2 |
| 20260903054904 | 66 | 281 | 4.0 | 7.0 | 0.00 | 0.00 | 0.00 | 82 | 1057.2 |
| 20260903054857 | 66 | 283 | 4.0 | 7.0 | 0.00 | 0.00 | 0.00 | 82 | 1057.2 |
| 20260903054849 | 66 | 287 | 4.0 | 7.0 | 0.00 | 0.00 | 0.00 | 82 | 1057.2 |
| 20260903054841 | 66 | 289 | 4.0 | 7.0 | 0.00 | 0.00 | 0.00 | 82 | 1057.2 |
| 20260903054834 | 66 | 289 | 4.0 | 7.0 | 0.00 | 0.00 | 0.00 | 82 | 1057.2 |
| 20260903054825 | 66 | 291 | 4.0 | 7.0 | 0.00 | 0.00 | 0.00 | 82 | 1057.2 |
| 20260903054558 | 66 | 291 | 4.0 | 7.0 | 0.00 | 0.00 | 0.00 | 82 | 1057.2 |
| 20260903054544 | 66 | 279 | 4.0 | 7.0 | 0.00 | 0.00 | 0.00 | 82 | 1057.2 |
| 20260903054532 | 66 | 278 | 4.0 | 7.0 | 0.00 | 0.00 | 0.00 | 82 | 1057.2 |
| 20260903054043 | 66 | 278 | 4.0 | 8.0 | 0.00 | 0.00 | 0.00 | 82 | 1057.2 |
| 20260903053818 | 66 | 278 | 4.0 | 8.0 | 0.00 | 0.00 | 0.00 | 82 | 1057.2 |
| 20260903053806 | 66 | 278 | 4.0 | 8.0 | 0.00 | 0.00 | 0.00 | 81 | 1057.2 |
| 20260903053758 | 66 | 278 | 4.0 | 8.0 | 0.00 | 0.00 | 0.00 | 81 | 1057.2 |
| 20260903053530 | 66 | 278 | 5.0 | 8.0 | 0.00 | 0.00 | 0.00 | 81 | 1057.2 |
| 20260903053522 | 66 | 280 | 5.0 | 8.0 | 0.00 | 0.00 | 0.00 | 81 | 1057.2 |
| 20260903053515 | 66 | 278 | 5.0 | 8.0 | 0.00 | 0.00 | 0.00 | 81 | 1057.1 |
| 20260903053243 | 66 | 278 | 5.0 | 8.0 | 0.00 | 0.00 | 0.00 | 82 | 1057.1 |
| 20260903053233 | 66 | 278 | 4.0 | 8.0 | 0.00 | 0.00 | 0.00 | 82 | 1057.1 |
| 20260903053001 | 66 | 276 | 4.0 | 8.0 | 0.00 | 0.00 | 0.00 | 82 | 1057.1 |
| 20260903052953 | 66 | 277 | 4.0 | 8.0 | 0.00 | 0.00 | 0.00 | 81 | 1057.1 |
| 20260903052945 | 66 | 277 | 4.0 | 8.0 | 0.00 | 0.00 | 0.00 | 82 | 1057.1 |
| 20260903052711 | 66 | 276 | 4.0 | 8.0 | 0.00 | 0.00 | 0.00 | 82 | 1057.1 |
| 20260903052650 | 66 | 276 | 4.0 | 8.0 | 0.00 | 0.00 | 0.00 | 82 | 1057.1 |
| 20260903052208 | 66 | 276 | 4.0 | 7.0 | 0.00 | 0.00 | 0.00 | 81 | 1057.1 |
| 20260903052200 | 66 | 275 | 4.0 | 7.0 | 0.00 | 0.00 | 0.00 | 81 | 1057.1 |
| 20260903052151 | 66 | 274 | 4.0 | 7.0 | 0.00 | 0.00 | 0.00 | 81 | 1057.1 |
| 20260903052139 | 66 | 274 | 4.0 | 7.0 | 0.00 | 0.00 | 0.00 | 82 | 1057.1 |
| 20260903052135 | 66 | 274 | 4.0 | 7.0 | 0.00 | 0.00 | 0.00 | 81 | 1057.1 |
| 20260903051156 | 66 | 274 | 4.0 | 8.0 | 0.00 | 0.00 | 0.00 | 81 | 1057.0 |
| 20260903050901 | 66 | 274 | 4.0 | 8.0 | 0.00 | 0.00 | 0.00 | 81 | 1057.0 |
| 20260903050758 | 66 | 274 | 4.0 | 8.0 | 0.00 | 0.00 | 0.00 | 81 | 1057.0 |
| 20260903050657 | 66 | 273 | 4.0 | 8.0 | 0.00 | 0.00 | 0.00 | 81 | 1057.1 |
| 20260903050612 | 66 | 272 | 4.0 | 8.0 | 0.00 | 0.00 | 0.00 | 81 | 1057.1 |
| 20260903050558 | 66 | 269 | 4.0 | 8.0 | 0.00 | 0.00 | 0.00 | 81 | 1057.1 |
| 20260903050543 | 66 | 268 | 5.0 | 8.0 | 0.00 | 0.00 | 0.00 | 81 | 1057.1 |
| 20260903050533 | 66 | 268 | 5.0 | 8.0 | 0.00 | 0.00 | 0.00 | 81 | 1057.1 |
| 20260903045934 | 66 | 268 | 5.0 | 7.0 | 0.00 | 0.00 | 0.00 | 81 | 1057.0 |
| 20260903045851 | 66 | 268 | 5.0 | 7.0 | 0.00 | 0.00 | 0.00 | 81 | 1057.1 |
| 20260903045749 | 66 | 268 | 4.0 | 7.0 | 0.00 | 0.00 | 0.00 | 81 | 1057.1 |
| 20260903045725 | 66 | 262 | 4.0 | 7.0 | 0.00 | 0.00 | 0.00 | 81 | 1057.1 |
| 20260903045714 | 66 | 282 | 4.0 | 7.0 | 0.00 | 0.00 | 0.00 | 81 | 1057.0 |
| 20260903045436 | 66 | 285 | 4.0 | 7.0 | 0.00 | 0.00 | 0.00 | 81 | 1057.0 |
| 20260903045345 | 66 | 283 | 4.0 | 7.0 | 0.00 | 0.00 | 0.00 | 81 | 1057.0 |
| 20260903045245 | 66 | 285 | 4.0 | 7.0 | 0.00 | 0.00 | 0.00 | 81 | 1057.0 |
| 20260903045214 | 66 | 284 | 4.0 | 7.0 | 0.00 | 0.00 | 0.00 | 80 | 1057.0 |
| 20260903045205 | 66 | 284 | 4.0 | 7.0 | 0.00 | 0.00 | 0.00 | 80 | 1056.9 |
| 20260903045144 | 66 | 284 | 4.0 | 7.0 | 0.00 | 0.00 | 0.00 | 80 | 1057.0 |
| 20260903045133 | 66 | 285 | 4.0 | 7.0 | 0.00 | 0.00 | 0.00 | 80 | 1057.0 |
| 20260903044636 | 66 | 285 | 4.0 | 7.0 | 0.00 | 0.00 | 0.00 | 80 | 1057.0 |
| 20260903044622 | 66 | 285 | 4.0 | 7.0 | 0.00 | 0.00 | 0.00 | 80 | 1057.0 |
| 20260903044608 | 66 | 284 | 4.0 | 7.0 | 0.00 | 0.00 | 0.00 | 80 | 1057.0 |
| 20260903044600 | 66 | 285 | 4.0 | 7.0 | 0.00 | 0.00 | 0.00 | 80 | 1057.0 |